Time,TemperatureF,DewpointF,PressureIn,WindDirection,WindDirectionDegrees,WindSpeedMPH,WindSpeedGustMPH,Humidity,HourlyPrecipIn,Conditions,Clouds,dailyrainin,SoftwareType,DateUTC
2013-03-23 00:00:00,46.3,44.7,29.68,ESE,106,0.0,3.0,94,0.00,,,0.52,Wunderground v.1.15,2013-03-23 05:00:00,
2013-03-23 00:05:00,46.3,44.7,29.68,ESE,106,0.0,0.0,94,0.00,,,0.52,Wunderground v.1.15,2013-03-23 05:05:00,
2013-03-23 00:06:00,46.3,44.7,29.67,ESE,106,0.0,0.0,94,0.00,,,0.00,Wunderground v.1.15,2013-03-23 05:06:00,
2013-03-23 00:08:00,46.3,44.7,29.67,East,95,0.0,0.0,94,0.00,,,0.00,Wunderground v.1.15,2013-03-23 05:08:00,
2013-03-23 00:10:00,46.3,44.7,29.67,East,95,0.0,0.0,94,0.00,,,0.00,Wunderground v.1.15,2013-03-23 05:10:00,
2013-03-23 00:13:00,46.4,44.8,29.67,East,94,0.0,0.0,94,0.00,,,0.00,Wunderground v.1.15,2013-03-23 05:13:00,
2013-03-23 00:16:00,46.3,44.7,29.67,ESE,115,0.0,2.0,94,0.00,,,0.00,Wunderground v.1.15,2013-03-23 05:16:00,
2013-03-23 00:19:00,46.3,44.7,29.67,ESE,115,0.0,2.0,94,0.00,,,0.00,Wunderground v.1.15,2013-03-23 05:19:00,
2013-03-23 00:22:00,46.4,44.8,29.67,ESE,115,0.0,2.0,94,0.00,,,0.00,Wunderground v.1.15,2013-03-23 05:22:00,
2013-03-23 00:24:00,46.4,44.8,29.67,ESE,115,0.0,0.0,94,0.00,,,0.00,Wunderground v.1.15,2013-03-23 05:24:00,
2013-03-23 00:28:00,46.4,44.8,29.67,ESE,115,0.0,0.0,94,0.00,,,0.00,Wunderground v.1.15,2013-03-23 05:28:00,
2013-03-23 00:32:00,46.4,44.8,29.67,SSE,161,0.0,0.0,94,0.00,,,0.00,Wunderground v.1.15,2013-03-23 05:32:00,
2013-03-23 00:34:00,46.4,44.8,29.67,SSE,160,0.0,0.0,94,0.00,,,0.00,Wunderground v.1.15,2013-03-23 05:34:00,
2013-03-23 00:38:00,46.4,44.8,29.66,SE,144,0.0,1.0,94,0.00,,,0.00,Wunderground v.1.15,2013-03-23 05:38:00,
2013-03-23 00:39:00,46.4,44.8,29.66,SE,144,0.0,1.0,94,0.00,,,0.00,Wunderground v.1.15,2013-03-23 05:39:00,
2013-03-23 00:40:00,46.4,44.8,29.66,SE,144,0.0,1.0,94,0.00,,,0.00,Wunderground v.1.15,2013-03-23 05:40:00,
2013-03-23 00:43:00,46.4,44.8,29.66,NNE,22,0.0,0.0,94,0.00,,,0.00,Wunderground v.1.15,2013-03-23 05:43:00,
2013-03-23 00:46:00,46.4,44.8,29.66,ENE,68,0.0,1.0,94,0.00,,,0.00,Wunderground v.1.15,2013-03-23 05:46:00,
2013-03-23 00:47:00,46.4,44.8,29.66,ENE,68,0.0,1.0,94,0.00,,,0.00,Wunderground v.1.15,2013-03-23 05:47:00,
2013-03-23 00:50:00,46.4,44.8,29.66,ENE,62,0.0,1.0,94,0.00,,,0.00,Wunderground v.1.15,2013-03-23 05:50:00,
2013-03-23 00:51:00,46.4,44.8,29.66,ENE,62,0.0,1.0,94,0.00,,,0.00,Wunderground v.1.15,2013-03-23 05:51:00,
2013-03-23 00:52:00,46.4,44.8,29.66,ENE,76,0.0,0.0,94,0.00,,,0.00,Wunderground v.1.15,2013-03-23 05:52:00,
2013-03-23 00:54:00,46.4,44.8,29.66,East,96,0.0,3.0,94,0.00,,,0.00,Wunderground v.1.15,2013-03-23 05:54:00,
2013-03-23 00:56:00,46.4,44.8,29.66,East,84,0.0,3.0,94,0.00,,,0.00,Wunderground v.1.15,2013-03-23 05:56:00,
2013-03-23 00:59:00,46.4,44.8,29.66,SE,125,0.0,3.0,94,0.00,,,0.00,Wunderground v.1.15,2013-03-23 05:59:00,
2013-03-23 01:02:00,46.4,44.8,29.66,SE,125,0.0,3.0,94,0.00,,,0.00,Wunderground v.1.15,2013-03-23 06:02:00,
2013-03-23 01:05:00,46.4,44.8,29.66,SE,141,3.0,3.0,94,0.00,,,0.00,Wunderground v.1.15,2013-03-23 06:05:00,
2013-03-23 01:09:00,46.4,44.8,29.66,SE,140,0.0,3.0,94,0.00,,,0.00,Wunderground v.1.15,2013-03-23 06:09:00,
2013-03-23 01:10:00,46.5,44.9,29.66,SE,140,0.0,3.0,94,0.00,,,0.00,Wunderground v.1.15,2013-03-23 06:10:00,
2013-03-23 01:14:00,46.5,44.9,29.67,SE,140,0.0,0.0,94,0.00,,,0.00,Wunderground v.1.15,2013-03-23 06:14:00,
2013-03-23 01:15:00,46.5,44.9,29.67,SE,140,0.0,0.0,94,0.00,,,0.00,Wunderground v.1.15,2013-03-23 06:15:00,
2013-03-23 01:17:00,46.5,44.9,29.67,SE,140,0.0,0.0,94,0.00,,,0.00,Wunderground v.1.15,2013-03-23 06:17:00,
2013-03-23 01:21:00,46.5,44.9,29.67,SE,140,0.0,0.0,94,0.00,,,0.00,Wunderground v.1.15,2013-03-23 06:21:00,
2013-03-23 01:23:00,46.5,44.9,29.67,SE,140,0.0,0.0,94,0.00,,,0.00,Wunderground v.1.15,2013-03-23 06:23:00,
2013-03-23 01:24:00,46.5,44.9,29.68,SE,140,0.0,0.0,94,0.00,,,0.00,Wunderground v.1.15,2013-03-23 06:24:00,
2013-03-23 01:28:00,46.5,44.9,29.68,SE,140,0.0,0.0,94,0.00,,,0.00,Wunderground v.1.15,2013-03-23 06:28:00,
2013-03-23 01:30:00,46.5,44.9,29.68,SE,140,0.0,0.0,94,0.00,,,0.00,Wunderground v.1.15,2013-03-23 06:30:00,
2013-03-23 01:34:00,46.5,44.9,29.68,SE,140,0.0,0.0,94,0.00,,,0.00,Wunderground v.1.15,2013-03-23 06:34:00,
2013-03-23 01:35:00,46.5,44.9,29.68,SE,140,0.0,0.0,94,0.00,,,0.00,Wunderground v.1.15,2013-03-23 06:35:00,
2013-03-23 01:37:00,46.5,44.9,29.68,SE,140,0.0,0.0,94,0.00,,,0.00,Wunderground v.1.15,2013-03-23 06:37:00,
2013-03-23 01:41:00,46.5,44.9,29.68,SE,140,0.0,0.0,94,0.00,,,0.00,Wunderground v.1.15,2013-03-23 06:41:00,
2013-03-23 01:42:00,46.5,44.9,29.68,SE,140,0.0,0.0,94,0.00,,,0.00,Wunderground v.1.15,2013-03-23 06:42:00,
2013-03-23 01:44:00,46.5,44.9,29.68,SE,140,0.0,0.0,94,0.00,,,0.00,Wunderground v.1.15,2013-03-23 06:44:00,
2013-03-23 01:46:00,46.5,44.9,29.68,SE,140,0.0,0.0,94,0.00,,,0.00,Wunderground v.1.15,2013-03-23 06:46:00,
2013-03-23 01:49:00,46.5,44.9,29.68,SE,140,0.0,0.0,94,0.00,,,0.00,Wunderground v.1.15,2013-03-23 06:49:00,
2013-03-23 01:52:00,46.5,44.9,29.68,SE,140,0.0,0.0,94,0.00,,,0.00,Wunderground v.1.15,2013-03-23 06:52:00,
2013-03-23 01:53:00,46.5,44.9,29.68,SE,140,0.0,0.0,94,0.00,,,0.00,Wunderground v.1.15,2013-03-23 06:53:00,
2013-03-23 01:54:00,46.5,44.9,29.68,SE,140,0.0,0.0,94,0.00,,,0.00,Wunderground v.1.15,2013-03-23 06:54:00,
2013-03-23 01:58:00,46.5,44.9,29.68,SE,140,0.0,0.0,94,0.00,,,0.00,Wunderground v.1.15,2013-03-23 06:58:00,
2013-03-23 02:00:00,46.5,44.9,29.68,SE,140,0.0,0.0,94,0.00,,,0.00,Wunderground v.1.15,2013-03-23 07:00:00,
2013-03-23 02:01:00,46.5,44.9,29.68,SE,140,0.0,0.0,94,0.00,,,0.00,Wunderground v.1.15,2013-03-23 07:01:00,
2013-03-23 02:04:00,46.5,44.9,29.68,SE,140,0.0,0.0,94,0.00,,,0.00,Wunderground v.1.15,2013-03-23 07:04:00,
2013-03-23 02:05:00,46.5,44.9,29.68,SE,140,0.0,0.0,94,0.00,,,0.00,Wunderground v.1.15,2013-03-23 07:05:00,
2013-03-23 02:07:00,46.5,44.9,29.68,SE,140,0.0,0.0,94,0.00,,,0.00,Wunderground v.1.15,2013-03-23 07:07:00,
2013-03-23 02:09:00,46.4,44.8,29.68,SE,140,0.0,0.0,94,0.00,,,0.00,Wunderground v.1.15,2013-03-23 07:09:00,
2013-03-23 02:10:00,46.5,44.9,29.68,SE,140,0.0,0.0,94,0.00,,,0.00,Wunderground v.1.15,2013-03-23 07:10:00,
2013-03-23 02:12:00,46.4,44.8,29.68,SE,140,0.0,0.0,94,0.00,,,0.00,Wunderground v.1.15,2013-03-23 07:12:00,
2013-03-23 02:15:00,46.4,44.8,29.68,SE,140,0.0,0.0,94,0.00,,,0.00,Wunderground v.1.15,2013-03-23 07:15:00,
2013-03-23 02:16:00,46.4,44.8,29.68,SE,140,0.0,0.0,94,0.00,,,0.00,Wunderground v.1.15,2013-03-23 07:16:00,
2013-03-23 02:17:00,46.4,44.8,29.68,SE,140,0.0,0.0,94,0.00,,,0.00,Wunderground v.1.15,2013-03-23 07:17:00,
2013-03-23 02:20:00,46.4,44.8,29.68,SE,140,0.0,0.0,94,0.00,,,0.00,Wunderground v.1.15,2013-03-23 07:20:00,
2013-03-23 02:21:00,46.4,44.8,29.68,SE,140,0.0,0.0,94,0.00,,,0.00,Wunderground v.1.15,2013-03-23 07:21:00,
2013-03-23 02:22:00,46.4,44.8,29.67,SE,140,0.0,0.0,94,0.00,,,0.00,Wunderground v.1.15,2013-03-23 07:22:00,
2013-03-23 02:23:00,46.4,44.8,29.67,SE,140,0.0,0.0,94,0.00,,,0.00,Wunderground v.1.15,2013-03-23 07:23:00,
2013-03-23 02:25:00,46.4,44.8,29.67,SE,140,0.0,0.0,94,0.00,,,0.00,Wunderground v.1.15,2013-03-23 07:25:00,
2013-03-23 02:26:00,46.4,44.8,29.67,SE,140,0.0,0.0,94,0.00,,,0.00,Wunderground v.1.15,2013-03-23 07:26:00,
2013-03-23 02:27:00,46.4,44.8,29.67,East,84,1.0,3.0,94,0.00,,,0.00,Wunderground v.1.15,2013-03-23 07:27:00,
2013-03-23 02:28:00,46.4,44.8,29.67,NNW,342,0.0,3.0,94,0.00,,,0.00,Wunderground v.1.15,2013-03-23 07:28:00,
2013-03-23 02:30:00,46.4,44.8,29.67,NNW,342,0.0,3.0,94,0.00,,,0.00,Wunderground v.1.15,2013-03-23 07:30:00,
2013-03-23 02:31:00,46.4,44.8,29.67,NNW,342,0.0,3.0,94,0.00,,,0.00,Wunderground v.1.15,2013-03-23 07:31:00,
2013-03-23 02:33:00,46.4,44.8,29.66,NNW,342,0.0,0.0,94,0.00,,,0.00,Wunderground v.1.15,2013-03-23 07:33:00,
2013-03-23 02:34:00,46.4,44.8,29.66,NNW,342,0.0,0.0,94,0.00,,,0.00,Wunderground v.1.15,2013-03-23 07:34:00,
2013-03-23 02:36:00,46.3,44.7,29.66,NNW,341,0.0,0.0,94,0.00,,,0.00,Wunderground v.1.15,2013-03-23 07:36:00,
2013-03-23 02:39:00,46.4,44.8,29.66,ENE,61,0.0,0.0,94,0.00,,,0.00,Wunderground v.1.15,2013-03-23 07:39:00,
2013-03-23 02:41:00,46.3,44.7,29.66,NNW,348,0.0,0.0,94,0.00,,,0.00,Wunderground v.1.15,2013-03-23 07:41:00,
2013-03-23 02:44:00,46.3,44.7,29.66,North,355,0.0,0.0,94,0.00,,,0.00,Wunderground v.1.15,2013-03-23 07:44:00,
2013-03-23 02:45:00,46.3,44.7,29.66,North,11,0.0,0.0,94,0.00,,,0.00,Wunderground v.1.15,2013-03-23 07:45:00,
2013-03-23 02:46:00,46.3,44.7,29.66,SE,128,0.0,0.0,94,0.00,,,0.00,Wunderground v.1.15,2013-03-23 07:46:00,
2013-03-23 02:47:00,46.3,44.7,29.66,SE,128,0.0,0.0,94,0.00,,,0.00,Wunderground v.1.15,2013-03-23 07:47:00,
2013-03-23 02:50:00,46.3,44.7,29.66,ENE,71,0.0,3.0,94,0.00,,,0.00,Wunderground v.1.15,2013-03-23 07:50:00,
2013-03-23 02:51:00,46.3,44.7,29.66,ENE,71,0.0,3.0,94,0.00,,,0.00,Wunderground v.1.15,2013-03-23 07:51:00,
2013-03-23 02:52:00,46.3,44.7,29.66,ENE,71,0.0,3.0,94,0.00,,,0.00,Wunderground v.1.15,2013-03-23 07:52:00,
2013-03-23 02:56:00,46.3,44.7,29.65,ENE,71,0.0,1.0,94,0.00,,,0.00,Wunderground v.1.15,2013-03-23 07:56:00,
2013-03-23 02:57:00,46.3,44.7,29.65,ENE,71,0.0,1.0,94,0.00,,,0.00,Wunderground v.1.15,2013-03-23 07:57:00,
2013-03-23 02:58:00,46.3,44.7,29.65,ENE,72,0.0,1.0,94,0.00,,,0.00,Wunderground v.1.15,2013-03-23 07:58:00,
2013-03-23 03:02:00,46.3,44.4,29.65,NNW,344,2.0,5.0,93,0.00,,,0.00,Wunderground v.1.15,2013-03-23 08:02:00,
2013-03-23 03:03:00,46.3,44.4,29.65,NNW,337,0.0,0.0,93,0.00,,,0.00,Wunderground v.1.15,2013-03-23 08:03:00,
2013-03-23 03:07:00,46.3,44.4,29.65,East,101,5.0,5.0,93,0.00,,,0.00,Wunderground v.1.15,2013-03-23 08:07:00,
2013-03-23 03:08:00,46.3,44.4,29.65,East,91,0.0,5.0,93,0.00,,,0.00,Wunderground v.1.15,2013-03-23 08:08:00,
2013-03-23 03:12:00,46.3,44.4,29.65,NE,48,0.0,5.0,93,0.00,,,0.00,Wunderground v.1.15,2013-03-23 08:12:00,
2013-03-23 03:13:00,46.3,44.4,29.65,East,88,5.0,6.0,93,0.00,,,0.00,Wunderground v.1.15,2013-03-23 08:13:00,
2013-03-23 03:17:00,46.3,44.4,29.65,East,95,0.0,6.0,93,0.00,,,0.00,Wunderground v.1.15,2013-03-23 08:17:00,
2013-03-23 03:18:00,46.3,44.4,29.65,ENE,74,2.0,6.0,93,0.00,,,0.00,Wunderground v.1.15,2013-03-23 08:18:00,
2013-03-23 03:22:00,46.3,44.4,29.65,East,91,0.0,6.0,93,0.00,,,0.00,Wunderground v.1.15,2013-03-23 08:22:00,
2013-03-23 03:24:00,46.3,44.4,29.65,East,91,0.0,0.0,93,0.00,,,0.00,Wunderground v.1.15,2013-03-23 08:24:00,
2013-03-23 03:27:00,46.2,44.3,29.65,East,87,0.0,4.0,93,0.00,,,0.00,Wunderground v.1.15,2013-03-23 08:27:00,
2013-03-23 03:29:00,46.3,44.4,29.64,ESE,106,1.0,4.0,93,0.00,,,0.00,Wunderground v.1.15,2013-03-23 08:29:00,
2013-03-23 03:33:00,46.2,44.3,29.64,ESE,107,0.0,0.0,93,0.00,,,0.00,Wunderground v.1.15,2013-03-23 08:33:00,
2013-03-23 03:34:00,46.2,44.3,29.63,East,91,0.0,2.0,93,0.00,,,0.00,Wunderground v.1.15,2013-03-23 08:34:00,
2013-03-23 03:37:00,46.2,44.3,29.63,ENE,71,0.0,2.0,93,0.00,,,0.00,Wunderground v.1.15,2013-03-23 08:37:00,
2013-03-23 03:38:00,46.2,44.3,29.63,ENE,71,0.0,2.0,93,0.00,,,0.00,Wunderground v.1.15,2013-03-23 08:38:00,
2013-03-23 03:39:00,46.2,44.3,29.63,ENE,71,0.0,2.0,93,0.00,,,0.00,Wunderground v.1.15,2013-03-23 08:39:00,
2013-03-23 03:40:00,46.2,44.3,29.63,East,101,0.0,2.0,93,0.00,,,0.00,Wunderground v.1.15,2013-03-23 08:40:00,
2013-03-23 03:43:00,46.2,44.3,29.63,ESE,103,0.0,0.0,93,0.00,,,0.00,Wunderground v.1.15,2013-03-23 08:43:00,
2013-03-23 03:44:00,46.2,44.3,29.64,SE,133,0.0,1.0,93,0.00,,,0.00,Wunderground v.1.15,2013-03-23 08:44:00,
2013-03-23 03:45:00,46.2,44.3,29.64,SE,133,0.0,1.0,93,0.00,,,0.00,Wunderground v.1.15,2013-03-23 08:45:00,
2013-03-23 03:48:00,46.2,44.3,29.64,NE,44,0.0,1.0,93,0.00,,,0.00,Wunderground v.1.15,2013-03-23 08:48:00,
2013-03-23 03:49:00,46.2,44.3,29.64,ESE,106,0.0,1.0,93,0.00,,,0.00,Wunderground v.1.15,2013-03-23 08:49:00,
2013-03-23 03:50:00,46.2,44.3,29.64,ENE,73,0.0,2.0,93,0.00,,,0.00,Wunderground v.1.15,2013-03-23 08:50:00,
2013-03-23 03:53:00,46.2,44.3,29.64,ENE,73,0.0,0.0,93,0.00,,,0.00,Wunderground v.1.15,2013-03-23 08:53:00,
2013-03-23 03:54:00,46.2,44.3,29.64,ENE,72,2.0,2.0,93,0.00,,,0.00,Wunderground v.1.15,2013-03-23 08:54:00,
2013-03-23 03:55:00,46.2,44.3,29.64,ENE,72,0.0,2.0,93,0.00,,,0.00,Wunderground v.1.15,2013-03-23 08:55:00,
2013-03-23 03:56:00,46.2,44.3,29.64,ENE,72,0.0,2.0,93,0.00,,,0.00,Wunderground v.1.15,2013-03-23 08:56:00,
2013-03-23 03:59:00,46.2,44.3,29.64,ENE,72,0.0,2.0,93,0.00,,,0.00,Wunderground v.1.15,2013-03-23 08:59:00,
2013-03-23 04:00:00,46.2,44.3,29.64,SSE,166,0.0,2.0,93,0.00,,,0.00,Wunderground v.1.15,2013-03-23 09:00:00,
2013-03-23 04:01:00,46.2,44.3,29.64,SSE,165,0.0,2.0,93,0.00,,,0.00,Wunderground v.1.15,2013-03-23 09:01:00,
2013-03-23 04:04:00,46.2,44.3,29.65,South,169,0.0,3.0,93,0.00,,,0.00,Wunderground v.1.15,2013-03-23 09:04:00,
2013-03-23 04:05:00,46.2,44.3,29.65,South,169,0.0,3.0,93,0.00,,,0.00,Wunderground v.1.15,2013-03-23 09:05:00,
2013-03-23 04:07:00,46.2,44.3,29.65,South,186,2.0,4.0,93,0.00,,,0.00,Wunderground v.1.15,2013-03-23 09:07:00,
2013-03-23 04:09:00,46.2,44.3,29.65,South,174,3.0,4.0,93,0.00,,,0.00,Wunderground v.1.15,2013-03-23 09:09:00,
2013-03-23 04:10:00,46.3,44.4,29.65,SSW,200,3.0,4.0,93,0.00,,,0.00,Wunderground v.1.15,2013-03-23 09:10:00,
2013-03-23 04:12:00,46.3,44.4,29.64,SSW,193,1.0,4.0,93,0.00,,,0.00,Wunderground v.1.15,2013-03-23 09:12:00,
2013-03-23 04:14:00,46.3,44.4,29.64,SSW,193,0.0,1.0,93,0.00,,,0.00,Wunderground v.1.15,2013-03-23 09:14:00,
2013-03-23 04:15:00,46.3,44.4,29.64,East,88,0.0,1.0,93,0.00,,,0.00,Wunderground v.1.15,2013-03-23 09:15:00,
2013-03-23 04:17:00,46.3,44.4,29.64,South,188,0.0,2.0,93,0.00,,,0.00,Wunderground v.1.15,2013-03-23 09:17:00,
2013-03-23 04:18:00,46.3,44.4,29.64,South,187,0.0,2.0,93,0.00,,,0.00,Wunderground v.1.15,2013-03-23 09:18:00,
2013-03-23 04:19:00,46.3,44.4,29.64,SSE,157,0.0,2.0,93,0.00,,,0.00,Wunderground v.1.15,2013-03-23 09:19:00,
2013-03-23 04:20:00,46.2,44.3,29.64,SSE,157,0.0,2.0,93,0.00,,,0.00,Wunderground v.1.15,2013-03-23 09:20:00,
2013-03-23 04:23:00,46.3,44.4,29.64,SSE,157,0.0,0.0,93,0.00,,,0.00,Wunderground v.1.15,2013-03-23 09:23:00,
2013-03-23 04:24:00,46.2,44.3,29.64,SSE,157,0.0,0.0,93,0.00,,,0.00,Wunderground v.1.15,2013-03-23 09:24:00,
2013-03-23 04:26:00,46.2,44.3,29.64,SSE,157,0.0,0.0,93,0.00,,,0.00,Wunderground v.1.15,2013-03-23 09:26:00,
2013-03-23 04:28:00,46.2,44.3,29.64,SSE,156,0.0,0.0,93,0.00,,,0.00,Wunderground v.1.15,2013-03-23 09:28:00,
2013-03-23 04:29:00,46.2,44.3,29.64,SSE,157,0.0,0.0,93,0.00,,,0.00,Wunderground v.1.15,2013-03-23 09:29:00,
2013-03-23 04:32:00,46.2,44.3,29.63,SSE,156,0.0,0.0,93,0.00,,,0.00,Wunderground v.1.15,2013-03-23 09:32:00,
2013-03-23 04:34:00,46.2,44.3,29.64,SSE,157,0.0,0.0,93,0.00,,,0.00,Wunderground v.1.15,2013-03-23 09:34:00,
2013-03-23 04:38:00,46.2,44.6,29.63,East,84,0.0,2.0,94,0.00,,,0.00,Wunderground v.1.15,2013-03-23 09:38:00,
2013-03-23 04:39:00,46.2,44.6,29.63,East,84,0.0,2.0,94,0.00,,,0.00,Wunderground v.1.15,2013-03-23 09:39:00,
2013-03-23 04:43:00,46.2,44.6,29.63,East,86,0.0,0.0,94,0.00,,,0.00,Wunderground v.1.15,2013-03-23 09:43:00,
2013-03-23 04:44:00,46.2,44.6,29.63,East,86,0.0,0.0,94,0.00,,,0.00,Wunderground v.1.15,2013-03-23 09:44:00,
2013-03-23 04:45:00,46.2,44.6,29.63,East,84,0.0,0.0,94,0.00,,,0.00,Wunderground v.1.15,2013-03-23 09:45:00,
2013-03-23 04:48:00,46.2,44.6,29.63,NNW,340,0.0,2.0,94,0.00,,,0.00,Wunderground v.1.15,2013-03-23 09:48:00,
2013-03-23 04:49:00,46.2,44.6,29.63,NNW,340,0.0,2.0,94,0.00,,,0.00,Wunderground v.1.15,2013-03-23 09:49:00,
2013-03-23 04:50:00,46.2,44.6,29.63,NNW,340,0.0,2.0,94,0.00,,,0.00,Wunderground v.1.15,2013-03-23 09:50:00,
2013-03-23 04:51:00,46.2,44.6,29.63,NNE,13,0.0,2.0,94,0.00,,,0.00,Wunderground v.1.15,2013-03-23 09:51:00,
2013-03-23 04:54:00,46.3,44.7,29.63,NE,36,0.0,0.0,94,0.00,,,0.00,Wunderground v.1.15,2013-03-23 09:54:00,
2013-03-23 04:55:00,46.2,44.6,29.63,NE,36,0.0,0.0,94,0.00,,,0.00,Wunderground v.1.15,2013-03-23 09:55:00,
2013-03-23 04:57:00,46.3,44.7,29.63,NE,34,0.0,0.0,94,0.00,,,0.00,Wunderground v.1.15,2013-03-23 09:57:00,
2013-03-23 04:59:00,46.3,44.7,29.63,NNE,13,0.0,2.0,94,0.00,,,0.00,Wunderground v.1.15,2013-03-23 09:59:00,
2013-03-23 05:00:00,46.3,44.7,29.63,NNE,13,0.0,2.0,94,0.00,,,0.00,Wunderground v.1.15,2013-03-23 10:00:00,
2013-03-23 05:02:00,46.3,44.7,29.63,East,93,0.0,0.0,94,0.00,,,0.00,Wunderground v.1.15,2013-03-23 10:02:00,
2013-03-23 05:04:00,46.3,44.7,29.63,ENE,68,0.0,1.0,94,0.00,,,0.00,Wunderground v.1.15,2013-03-23 10:04:00,
2013-03-23 05:05:00,46.3,44.7,29.63,North,5,0.0,1.0,94,0.00,,,0.00,Wunderground v.1.15,2013-03-23 10:05:00,
2013-03-23 05:06:00,46.3,44.7,29.63,NNE,32,0.0,1.0,94,0.00,,,0.00,Wunderground v.1.15,2013-03-23 10:06:00,
2013-03-23 05:08:00,46.3,44.7,29.63,NNE,32,0.0,1.0,94,0.00,,,0.00,Wunderground v.1.15,2013-03-23 10:08:00,
2013-03-23 05:10:00,46.3,44.7,29.64,NNE,32,0.0,1.0,94,0.00,,,0.00,Wunderground v.1.15,2013-03-23 10:10:00,
2013-03-23 05:11:00,46.3,44.7,29.64,North,355,3.0,3.0,94,0.00,,,0.00,Wunderground v.1.15,2013-03-23 10:11:00,
2013-03-23 05:13:00,46.3,44.7,29.64,North,355,0.0,0.0,94,0.00,,,0.00,Wunderground v.1.15,2013-03-23 10:13:00,
2013-03-23 05:15:00,46.3,44.7,29.64,NNE,26,0.0,0.0,94,0.00,,,0.00,Wunderground v.1.15,2013-03-23 10:15:00,
2013-03-23 05:16:00,46.4,44.8,29.64,NNE,26,0.0,0.0,94,0.00,,,0.00,Wunderground v.1.15,2013-03-23 10:16:00,
2013-03-23 05:18:00,46.4,44.8,29.64,NNW,344,0.0,0.0,94,0.00,,,0.00,Wunderground v.1.15,2013-03-23 10:18:00,
2013-03-23 05:20:00,46.4,44.8,29.64,NNW,344,0.0,0.0,94,0.00,,,0.00,Wunderground v.1.15,2013-03-23 10:20:00,
2013-03-23 05:21:00,46.4,44.8,29.64,NNW,344,0.0,0.0,94,0.00,,,0.00,Wunderground v.1.15,2013-03-23 10:21:00,
2013-03-23 05:22:00,46.4,44.8,29.64,NNW,344,0.0,0.0,94,0.00,,,0.00,Wunderground v.1.15,2013-03-23 10:22:00,
2013-03-23 05:23:00,46.4,44.8,29.64,NNW,344,0.0,0.0,94,0.00,,,0.00,Wunderground v.1.15,2013-03-23 10:23:00,
2013-03-23 05:25:00,46.4,44.8,29.64,NNW,344,0.0,0.0,94,0.00,,,0.00,Wunderground v.1.15,2013-03-23 10:25:00,
2013-03-23 05:27:00,46.4,44.8,29.65,East,98,0.0,0.0,94,0.00,,,0.00,Wunderground v.1.15,2013-03-23 10:27:00,
2013-03-23 05:29:00,46.4,44.8,29.65,East,98,0.0,0.0,94,0.00,,,0.00,Wunderground v.1.15,2013-03-23 10:29:00,
2013-03-23 05:30:00,46.4,44.8,29.64,East,98,0.0,0.0,94,0.00,,,0.00,Wunderground v.1.15,2013-03-23 10:30:00,
2013-03-23 05:32:00,46.4,44.8,29.64,East,99,0.0,0.0,94,0.00,,,0.00,Wunderground v.1.15,2013-03-23 10:32:00,
2013-03-23 05:33:00,46.4,44.8,29.64,East,99,0.0,0.0,94,0.00,,,0.00,Wunderground v.1.15,2013-03-23 10:33:00,
2013-03-23 05:35:00,46.4,44.8,29.65,East,99,0.0,0.0,94,0.00,,,0.00,Wunderground v.1.15,2013-03-23 10:35:00,
2013-03-23 05:37:00,46.4,44.8,29.65,ESE,107,0.0,0.0,94,0.00,,,0.00,Wunderground v.1.15,2013-03-23 10:37:00,
2013-03-23 05:38:00,46.4,44.8,29.65,ESE,107,0.0,0.0,94,0.00,,,0.00,Wunderground v.1.15,2013-03-23 10:38:00,
2013-03-23 05:40:00,46.5,44.9,29.65,ESE,107,0.0,0.0,94,0.00,,,0.00,Wunderground v.1.15,2013-03-23 10:40:00,
2013-03-23 05:43:00,46.5,44.9,29.65,ESE,107,0.0,0.0,94,0.00,,,0.00,Wunderground v.1.15,2013-03-23 10:43:00,
2013-03-23 05:44:00,46.5,44.9,29.65,ESE,107,0.0,0.0,94,0.00,,,0.00,Wunderground v.1.15,2013-03-23 10:44:00,
2013-03-23 05:45:00,46.5,44.9,29.65,ESE,107,0.0,0.0,94,0.00,,,0.00,Wunderground v.1.15,2013-03-23 10:45:00,
2013-03-23 05:46:00,46.5,44.9,29.65,ESE,107,0.0,0.0,94,0.00,,,0.00,Wunderground v.1.15,2013-03-23 10:46:00,
2013-03-23 05:48:00,46.5,44.9,29.65,ESE,107,0.0,0.0,94,0.00,,,0.00,Wunderground v.1.15,2013-03-23 10:48:00,
2013-03-23 05:49:00,46.5,44.9,29.65,ESE,107,0.0,0.0,94,0.00,,,0.00,Wunderground v.1.15,2013-03-23 10:49:00,
2013-03-23 05:50:00,46.5,44.9,29.65,ESE,107,0.0,0.0,94,0.00,,,0.00,Wunderground v.1.15,2013-03-23 10:50:00,
2013-03-23 05:51:00,46.5,44.9,29.65,ESE,107,0.0,0.0,94,0.00,,,0.00,Wunderground v.1.15,2013-03-23 10:51:00,
2013-03-23 05:53:00,46.5,44.9,29.65,ESE,107,0.0,0.0,94,0.00,,,0.00,Wunderground v.1.15,2013-03-23 10:53:00,
2013-03-23 05:55:00,46.5,44.9,29.65,ESE,107,0.0,0.0,94,0.00,,,0.00,Wunderground v.1.15,2013-03-23 10:55:00,
2013-03-23 05:56:00,46.5,44.9,29.65,ESE,107,0.0,0.0,94,0.00,,,0.00,Wunderground v.1.15,2013-03-23 10:56:00,
2013-03-23 05:58:00,46.5,44.9,29.65,ESE,107,0.0,0.0,94,0.00,,,0.00,Wunderground v.1.15,2013-03-23 10:58:00,
2013-03-23 06:00:00,46.5,44.9,29.65,ESE,107,0.0,0.0,94,0.00,,,0.00,Wunderground v.1.15,2013-03-23 11:00:00,
2013-03-23 06:02:00,46.5,44.9,29.65,ESE,107,0.0,0.0,94,0.00,,,0.00,Wunderground v.1.15,2013-03-23 11:02:00,
2013-03-23 06:03:00,46.5,44.9,29.65,ESE,107,0.0,0.0,94,0.00,,,0.00,Wunderground v.1.15,2013-03-23 11:03:00,
2013-03-23 06:05:00,46.5,44.9,29.65,ESE,107,0.0,0.0,94,0.00,,,0.00,Wunderground v.1.15,2013-03-23 11:05:00,
2013-03-23 06:07:00,46.5,44.9,29.65,ESE,107,0.0,0.0,94,0.00,,,0.00,Wunderground v.1.15,2013-03-23 11:07:00,
2013-03-23 06:09:00,46.5,44.9,29.65,ESE,107,0.0,0.0,94,0.00,,,0.00,Wunderground v.1.15,2013-03-23 11:09:00,
2013-03-23 06:10:00,46.5,44.9,29.65,ESE,107,0.0,0.0,94,0.00,,,0.00,Wunderground v.1.15,2013-03-23 11:10:00,
2013-03-23 06:13:00,46.5,44.6,29.65,ESE,107,0.0,0.0,93,0.00,,,0.00,Wunderground v.1.15,2013-03-23 11:13:00,
2013-03-23 06:14:00,46.5,44.6,29.65,ESE,107,0.0,0.0,93,0.00,,,0.00,Wunderground v.1.15,2013-03-23 11:14:00,
2013-03-23 06:15:00,46.5,44.6,29.65,ESE,107,0.0,0.0,93,0.00,,,0.00,Wunderground v.1.15,2013-03-23 11:15:00,
2013-03-23 06:18:00,46.5,44.6,29.65,ESE,107,0.0,0.0,93,0.00,,,0.00,Wunderground v.1.15,2013-03-23 11:18:00,
2013-03-23 06:19:00,46.5,44.6,29.65,ESE,107,0.0,0.0,93,0.00,,,0.00,Wunderground v.1.15,2013-03-23 11:19:00,
2013-03-23 06:20:00,46.6,44.7,29.65,ESE,107,0.0,0.0,93,0.00,,,0.00,Wunderground v.1.15,2013-03-23 11:20:00,
2013-03-23 06:24:00,46.6,44.7,29.65,ESE,107,0.0,0.0,93,0.00,,,0.00,Wunderground v.1.15,2013-03-23 11:24:00,
2013-03-23 06:25:00,46.6,44.7,29.65,ESE,107,0.0,0.0,93,0.00,,,0.00,Wunderground v.1.15,2013-03-23 11:25:00,
2013-03-23 06:26:00,46.6,44.7,29.65,ESE,107,0.0,0.0,93,0.00,,,0.00,Wunderground v.1.15,2013-03-23 11:26:00,
2013-03-23 06:29:00,46.6,44.7,29.65,ESE,107,0.0,0.0,93,0.00,,,0.00,Wunderground v.1.15,2013-03-23 11:29:00,
2013-03-23 06:30:00,46.6,44.7,29.65,ESE,107,2.0,2.0,93,0.00,,,0.00,Wunderground v.1.15,2013-03-23 11:30:00,
2013-03-23 06:31:00,46.6,44.7,29.65,ESE,107,1.0,3.0,93,0.00,,,0.00,Wunderground v.1.15,2013-03-23 11:31:00,
2013-03-23 06:34:00,46.6,44.7,29.65,East,89,0.0,5.0,93,0.00,,,0.00,Wunderground v.1.15,2013-03-23 11:34:00,
2013-03-23 06:36:00,46.6,44.7,29.65,East,85,0.0,5.0,93,0.00,,,0.00,Wunderground v.1.15,2013-03-23 11:36:00,
2013-03-23 06:37:00,46.6,44.7,29.65,NNW,333,0.0,5.0,93,0.00,,,0.00,Wunderground v.1.15,2013-03-23 11:37:00,
2013-03-23 06:39:00,46.6,44.7,29.65,NNW,341,0.0,5.0,93,0.00,,,0.00,Wunderground v.1.15,2013-03-23 11:39:00,
2013-03-23 06:41:00,46.6,44.7,29.65,East,94,0.0,5.0,93,0.00,,,0.00,Wunderground v.1.15,2013-03-23 11:41:00,
2013-03-23 06:42:00,46.6,44.7,29.65,East,94,0.0,5.0,93,0.00,,,0.00,Wunderground v.1.15,2013-03-23 11:42:00,
2013-03-23 06:44:00,46.6,44.7,29.65,East,94,0.0,0.0,93,0.00,,,0.00,Wunderground v.1.15,2013-03-23 11:44:00,
2013-03-23 06:46:00,46.6,44.7,29.65,East,94,0.0,1.0,93,0.00,,,0.00,Wunderground v.1.15,2013-03-23 11:46:00,
2013-03-23 06:47:00,46.6,44.7,29.65,East,94,0.0,1.0,93,0.00,,,0.00,Wunderground v.1.15,2013-03-23 11:47:00,
2013-03-23 06:49:00,46.6,44.7,29.65,East,94,0.0,1.0,93,0.00,,,0.00,Wunderground v.1.15,2013-03-23 11:49:00,
2013-03-23 06:52:00,46.7,44.8,29.65,East,94,0.0,1.0,93,0.00,,,0.00,Wunderground v.1.15,2013-03-23 11:52:00,
2013-03-23 06:54:00,46.7,44.8,29.65,ENE,70,2.0,2.0,93,0.00,,,0.00,Wunderground v.1.15,2013-03-23 11:54:00,
2013-03-23 06:57:00,46.7,44.8,29.65,ESE,106,0.0,2.0,93,0.00,,,0.00,Wunderground v.1.15,2013-03-23 11:57:00,
2013-03-23 06:58:00,46.7,44.8,29.65,ESE,106,0.0,2.0,93,0.00,,,0.00,Wunderground v.1.15,2013-03-23 11:58:00,
2013-03-23 07:00:00,46.7,44.8,29.65,ESE,106,0.0,2.0,93,0.00,,,0.00,Wunderground v.1.15,2013-03-23 12:00:00,
2013-03-23 07:02:00,46.7,44.8,29.65,NNE,32,0.0,0.0,93,0.00,,,0.00,Wunderground v.1.15,2013-03-23 12:02:00,
2013-03-23 07:03:00,46.7,44.8,29.65,North,360,1.0,3.0,93,0.00,,,0.00,Wunderground v.1.15,2013-03-23 12:03:00,
2013-03-23 07:05:00,46.7,44.8,29.65,East,98,0.0,3.0,93,0.00,,,0.00,Wunderground v.1.15,2013-03-23 12:05:00,
2013-03-23 07:08:00,46.7,44.8,29.66,East,98,0.0,3.0,93,0.00,,,0.00,Wunderground v.1.15,2013-03-23 12:08:00,
2013-03-23 07:10:00,46.7,44.8,29.65,East,98,0.0,3.0,93,0.00,,,0.00,Wunderground v.1.15,2013-03-23 12:10:00,
2013-03-23 07:13:00,46.7,44.8,29.65,East,96,0.0,0.0,93,0.00,,,0.00,Wunderground v.1.15,2013-03-23 12:13:00,
2013-03-23 07:15:00,46.7,44.8,29.65,ENE,63,0.0,0.0,93,0.00,,,0.00,Wunderground v.1.15,2013-03-23 12:15:00,
2013-03-23 07:18:00,46.7,44.8,29.65,ENE,61,0.0,2.0,93,0.00,,,0.00,Wunderground v.1.15,2013-03-23 12:18:00,
2013-03-23 07:19:00,46.7,44.8,29.65,North,360,0.0,2.0,93,0.00,,,0.00,Wunderground v.1.15,2013-03-23 12:19:00,
2013-03-23 07:20:00,46.7,44.8,29.66,North,5,0.0,2.0,93,0.00,,,0.00,Wunderground v.1.15,2013-03-23 12:20:00,
2013-03-23 07:24:00,46.7,44.8,29.66,North,360,0.0,0.0,93,0.00,,,0.00,Wunderground v.1.15,2013-03-23 12:24:00,
2013-03-23 07:25:00,46.7,44.8,29.66,North,5,0.0,0.0,93,0.00,,,0.00,Wunderground v.1.15,2013-03-23 12:25:00,
2013-03-23 07:29:00,46.8,44.9,29.66,NNE,17,0.0,0.0,93,0.00,,,0.00,Wunderground v.1.15,2013-03-23 12:29:00,
2013-03-23 07:30:00,46.8,44.9,29.67,NNE,17,0.0,0.0,93,0.00,,,0.00,Wunderground v.1.15,2013-03-23 12:30:00,
2013-03-23 07:33:00,46.7,44.8,29.67,NNE,13,0.0,0.0,93,0.00,,,0.00,Wunderground v.1.15,2013-03-23 12:33:00,
2013-03-23 07:34:00,46.7,44.8,29.67,NNE,14,2.0,3.0,93,0.00,,,0.00,Wunderground v.1.15,2013-03-23 12:34:00,
2013-03-23 07:35:00,46.7,44.8,29.67,North,5,0.0,3.0,93,0.00,,,0.00,Wunderground v.1.15,2013-03-23 12:35:00,
2013-03-23 07:39:00,46.7,44.8,29.67,NNW,333,0.0,3.0,93,0.00,,,0.00,Wunderground v.1.15,2013-03-23 12:39:00,
2013-03-23 07:40:00,46.7,44.8,29.67,NNW,333,0.0,3.0,93,0.00,,,0.00,Wunderground v.1.15,2013-03-23 12:40:00,
2013-03-23 07:44:00,46.7,44.8,29.67,East,92,0.0,0.0,93,0.00,,,0.00,Wunderground v.1.15,2013-03-23 12:44:00,
2013-03-23 07:45:00,46.7,44.8,29.68,East,91,0.0,0.0,93,0.00,,,0.00,Wunderground v.1.15,2013-03-23 12:45:00,
2013-03-23 07:48:00,46.6,44.4,29.68,NNE,24,0.0,3.0,92,0.00,,,0.00,Wunderground v.1.15,2013-03-23 12:48:00,
2013-03-23 07:49:00,46.6,44.4,29.68,North,10,0.0,3.0,92,0.00,,,0.00,Wunderground v.1.15,2013-03-23 12:49:00,
2013-03-23 07:50:00,46.6,44.4,29.68,North,10,0.0,3.0,92,0.00,,,0.00,Wunderground v.1.15,2013-03-23 12:50:00,
2013-03-23 07:54:00,46.6,44.7,29.68,East,88,0.0,0.0,93,0.00,,,0.00,Wunderground v.1.15,2013-03-23 12:54:00,
2013-03-23 07:55:00,46.6,44.7,29.68,North,360,0.0,0.0,93,0.00,,,0.00,Wunderground v.1.15,2013-03-23 12:55:00,
2013-03-23 07:57:00,46.6,44.4,29.68,NNE,26,0.0,2.0,92,0.00,,,0.00,Wunderground v.1.15,2013-03-23 12:57:00,
2013-03-23 07:59:00,46.6,44.4,29.68,NNW,338,2.0,3.0,92,0.00,,,0.00,Wunderground v.1.15,2013-03-23 12:59:00,
2013-03-23 08:00:00,46.6,44.4,29.68,NNW,339,0.0,3.0,92,0.00,,,0.00,Wunderground v.1.15,2013-03-23 13:00:00,
2013-03-23 08:03:00,46.5,44.3,29.68,North,350,0.0,1.0,92,0.00,,,0.00,Wunderground v.1.15,2013-03-23 13:03:00,
2013-03-23 08:05:00,46.5,44.3,29.68,NE,44,0.0,1.0,92,0.00,,,0.00,Wunderground v.1.15,2013-03-23 13:05:00,
2013-03-23 08:06:00,46.6,44.4,29.68,NE,44,0.0,1.0,92,0.00,,,0.00,Wunderground v.1.15,2013-03-23 13:06:00,
2013-03-23 08:07:00,46.6,44.4,29.68,NE,44,0.0,1.0,92,0.00,,,0.00,Wunderground v.1.15,2013-03-23 13:07:00,
2013-03-23 08:09:00,46.5,44.3,29.68,ENE,74,0.0,5.0,92,0.00,,,0.00,Wunderground v.1.15,2013-03-23 13:09:00,
2013-03-23 08:11:00,46.6,44.4,29.68,North,9,0.0,5.0,92,0.00,,,0.00,Wunderground v.1.15,2013-03-23 13:11:00,
2013-03-23 08:12:00,46.6,44.4,29.68,North,9,0.0,0.0,92,0.00,,,0.00,Wunderground v.1.15,2013-03-23 13:12:00,
2013-03-23 08:14:00,46.6,44.4,29.68,East,94,0.0,1.0,92,0.00,,,0.00,Wunderground v.1.15,2013-03-23 13:14:00,
2013-03-23 08:17:00,46.6,44.4,29.68,West,259,0.0,2.0,92,0.00,,,0.00,Wunderground v.1.15,2013-03-23 13:17:00,
2013-03-23 08:19:00,46.7,44.5,29.68,East,96,0.0,2.0,92,0.00,,,0.00,Wunderground v.1.15,2013-03-23 13:19:00,
2013-03-23 08:22:00,46.7,44.5,29.68,NE,56,0.0,2.0,92,0.00,,,0.00,Wunderground v.1.15,2013-03-23 13:22:00,
2013-03-23 08:23:00,46.7,44.5,29.68,ENE,57,0.0,0.0,92,0.00,,,0.00,Wunderground v.1.15,2013-03-23 13:23:00,
2013-03-23 08:24:00,46.7,44.5,29.68,ENE,58,0.0,0.0,92,0.00,,,0.00,Wunderground v.1.15,2013-03-23 13:24:00,
2013-03-23 08:28:00,46.7,44.5,29.68,NE,40,2.0,4.0,92,0.00,,,0.00,Wunderground v.1.15,2013-03-23 13:28:00,
2013-03-23 08:29:00,46.7,44.2,29.67,NW,326,0.0,4.0,91,0.00,,,0.00,Wunderground v.1.15,2013-03-23 13:29:00,
2013-03-23 08:33:00,46.7,44.2,29.67,East,86,0.0,2.0,91,0.00,,,0.00,Wunderground v.1.15,2013-03-23 13:33:00,
2013-03-23 08:34:00,46.7,44.2,29.67,ESE,109,1.0,2.0,91,0.00,,,0.00,Wunderground v.1.15,2013-03-23 13:34:00,
2013-03-23 08:35:00,46.8,44.3,29.67,SE,132,2.0,2.0,91,0.00,,,0.00,Wunderground v.1.15,2013-03-23 13:35:00,
2013-03-23 08:38:00,46.8,44.3,29.66,East,90,0.0,6.0,91,0.00,,,0.00,Wunderground v.1.15,2013-03-23 13:38:00,
2013-03-23 08:39:00,46.8,44.3,29.66,East,90,0.0,6.0,91,0.00,,,0.00,Wunderground v.1.15,2013-03-23 13:39:00,
2013-03-23 08:40:00,46.8,44.3,29.66,NE,48,1.0,6.0,91,0.00,,,0.00,Wunderground v.1.15,2013-03-23 13:40:00,
2013-03-23 08:43:00,46.8,44.6,29.66,East,92,0.0,1.0,92,0.00,,,0.00,Wunderground v.1.15,2013-03-23 13:43:00,
2013-03-23 08:44:00,46.9,44.7,29.66,North,9,0.0,4.0,92,0.00,,,0.00,Wunderground v.1.15,2013-03-23 13:44:00,
2013-03-23 08:45:00,46.9,44.7,29.66,WNW,300,1.0,4.0,92,0.00,,,0.00,Wunderground v.1.15,2013-03-23 13:45:00,
2013-03-23 08:48:00,47.0,44.5,29.66,NNW,331,1.0,8.0,91,0.00,,,0.00,Wunderground v.1.15,2013-03-23 13:48:00,
2013-03-23 08:49:00,47.0,44.5,29.66,NNW,331,0.0,8.0,91,0.00,,,0.00,Wunderground v.1.15,2013-03-23 13:49:00,
2013-03-23 08:50:00,47.0,44.5,29.67,NNW,327,0.0,8.0,91,0.00,,,0.00,Wunderground v.1.15,2013-03-23 13:50:00,
2013-03-23 08:54:00,47.1,44.6,29.67,North,360,0.0,4.0,91,0.00,,,0.00,Wunderground v.1.15,2013-03-23 13:54:00,
2013-03-23 08:55:00,47.1,44.6,29.67,North,5,0.0,4.0,91,0.00,,,0.00,Wunderground v.1.15,2013-03-23 13:55:00,
2013-03-23 08:57:00,47.1,44.6,29.66,North,5,3.0,6.0,91,0.00,,,0.00,Wunderground v.1.15,2013-03-23 13:57:00,
2013-03-23 08:59:00,47.2,44.7,29.66,ENE,78,1.0,6.0,91,0.00,,,0.00,Wunderground v.1.15,2013-03-23 13:59:00,
2013-03-23 09:00:00,47.2,44.7,29.66,NNE,18,1.0,6.0,91,0.00,,,0.00,Wunderground v.1.15,2013-03-23 14:00:00,
2013-03-23 09:02:00,47.2,44.7,29.66,NNW,340,1.0,6.0,91,0.00,,,0.00,Wunderground v.1.15,2013-03-23 14:02:00,
2013-03-23 09:04:00,47.3,44.8,29.65,ESE,114,0.0,4.0,91,0.00,,,0.00,Wunderground v.1.15,2013-03-23 14:04:00,
2013-03-23 09:05:00,47.3,44.8,29.65,East,83,3.0,5.0,91,0.00,,,0.00,Wunderground v.1.15,2013-03-23 14:05:00,
2013-03-23 09:06:00,47.4,44.6,29.65,NE,46,3.0,5.0,90,0.00,,,0.00,Wunderground v.1.15,2013-03-23 14:06:00,
2013-03-23 09:08:00,47.4,44.9,29.65,NNW,338,0.0,5.0,91,0.00,,,0.00,Wunderground v.1.15,2013-03-23 14:08:00,
2013-03-23 09:09:00,47.5,45.0,29.65,SSE,153,2.0,5.0,91,0.00,,,0.00,Wunderground v.1.15,2013-03-23 14:09:00,
2013-03-23 09:10:00,47.6,45.1,29.65,SSE,154,1.0,5.0,91,0.00,,,0.00,Wunderground v.1.15,2013-03-23 14:10:00,
2013-03-23 09:13:00,47.7,45.2,29.65,SSE,153,0.0,2.0,91,0.00,,,0.00,Wunderground v.1.15,2013-03-23 14:13:00,
2013-03-23 09:14:00,47.7,45.2,29.65,SSE,153,0.0,2.0,91,0.00,,,0.00,Wunderground v.1.15,2013-03-23 14:14:00,
2013-03-23 09:15:00,47.8,45.3,29.66,SSE,153,0.0,2.0,91,0.00,,,0.00,Wunderground v.1.15,2013-03-23 14:15:00,
2013-03-23 09:16:00,47.9,45.4,29.65,NE,50,0.0,3.0,91,0.00,,,0.00,Wunderground v.1.15,2013-03-23 14:16:00,
2013-03-23 09:18:00,47.9,45.4,29.66,SE,131,2.0,4.0,91,0.00,,,0.00,Wunderground v.1.15,2013-03-23 14:18:00,
2013-03-23 09:19:00,48.0,45.2,29.66,East,96,0.0,4.0,90,0.00,,,0.00,Wunderground v.1.15,2013-03-23 14:19:00,
2013-03-23 09:20:00,48.0,45.2,29.66,East,80,1.0,4.0,90,0.00,,,0.00,Wunderground v.1.15,2013-03-23 14:20:00,
2013-03-23 09:21:00,48.0,45.2,29.66,North,355,2.0,4.0,90,0.00,,,0.00,Wunderground v.1.15,2013-03-23 14:21:00,
2013-03-23 09:23:00,48.0,45.2,29.66,East,100,0.0,1.0,90,0.00,,,0.00,Wunderground v.1.15,2013-03-23 14:23:00,
2013-03-23 09:24:00,48.1,45.3,29.66,East,100,0.0,1.0,90,0.00,,,0.00,Wunderground v.1.15,2013-03-23 14:24:00,
2013-03-23 09:25:00,48.1,45.3,29.66,East,99,0.0,1.0,90,0.00,,,0.00,Wunderground v.1.15,2013-03-23 14:25:00,
2013-03-23 09:28:00,48.2,45.4,29.66,ESE,119,0.0,1.0,90,0.00,,,0.00,Wunderground v.1.15,2013-03-23 14:28:00,
2013-03-23 09:29:00,48.2,45.4,29.66,SE,136,1.0,3.0,90,0.00,,,0.00,Wunderground v.1.15,2013-03-23 14:29:00,
2013-03-23 09:30:00,48.3,45.5,29.66,NNW,335,0.0,4.0,90,0.00,,,0.00,Wunderground v.1.15,2013-03-23 14:30:00,
2013-03-23 09:33:00,48.3,45.5,29.66,SE,142,4.0,4.0,90,0.00,,,0.00,Wunderground v.1.15,2013-03-23 14:33:00,
2013-03-23 09:34:00,48.4,45.3,29.66,NW,314,0.0,4.0,89,0.00,,,0.00,Wunderground v.1.15,2013-03-23 14:34:00,
2013-03-23 09:36:00,48.4,45.3,29.66,ESE,109,0.0,4.0,89,0.00,,,0.00,Wunderground v.1.15,2013-03-23 14:36:00,
2013-03-23 09:38:00,48.4,45.3,29.67,ENE,76,0.0,5.0,89,0.00,,,0.00,Wunderground v.1.15,2013-03-23 14:38:00,
2013-03-23 09:39:00,48.4,45.3,29.67,ENE,75,0.0,5.0,89,0.00,,,0.00,Wunderground v.1.15,2013-03-23 14:39:00,
2013-03-23 09:42:00,48.5,45.4,29.67,ENE,76,0.0,1.0,89,0.00,,,0.00,Wunderground v.1.15,2013-03-23 14:42:00,
2013-03-23 09:43:00,48.5,45.4,29.67,ENE,76,0.0,1.0,89,0.00,,,0.00,Wunderground v.1.15,2013-03-23 14:43:00,
2013-03-23 09:45:00,48.6,45.5,29.67,North,360,0.0,2.0,89,0.00,,,0.00,Wunderground v.1.15,2013-03-23 14:45:00,
2013-03-23 09:47:00,48.6,45.5,29.67,North,350,3.0,4.0,89,0.00,,,0.00,Wunderground v.1.15,2013-03-23 14:47:00,
2013-03-23 09:48:00,48.6,45.5,29.67,North,355,3.0,4.0,89,0.00,,,0.00,Wunderground v.1.15,2013-03-23 14:48:00,
2013-03-23 09:49:00,48.6,45.5,29.67,East,83,0.0,4.0,89,0.00,,,0.00,Wunderground v.1.15,2013-03-23 14:49:00,
2013-03-23 09:50:00,48.6,45.2,29.67,North,360,1.0,4.0,88,0.00,,,0.00,Wunderground v.1.15,2013-03-23 14:50:00,
2013-03-23 09:53:00,48.6,45.5,29.67,NNW,348,0.0,3.0,89,0.00,,,0.00,Wunderground v.1.15,2013-03-23 14:53:00,
2013-03-23 09:54:00,48.7,45.6,29.66,WNW,292,0.0,3.0,89,0.00,,,0.00,Wunderground v.1.15,2013-03-23 14:54:00,
2013-03-23 09:55:00,48.7,45.6,29.67,NNW,327,0.0,3.0,89,0.00,,,0.00,Wunderground v.1.15,2013-03-23 14:55:00,
2013-03-23 09:58:00,48.8,45.7,29.66,East,86,2.0,3.0,89,0.00,,,0.00,Wunderground v.1.15,2013-03-23 14:58:00,
2013-03-23 09:59:00,48.8,45.7,29.66,SE,135,0.0,3.0,89,0.00,,,0.00,Wunderground v.1.15,2013-03-23 14:59:00,
2013-03-23 10:00:00,48.8,45.7,29.66,East,82,0.0,3.0,89,0.00,,,0.00,Wunderground v.1.15,2013-03-23 15:00:00,
2013-03-23 10:03:00,48.9,45.8,29.67,ESE,102,3.0,4.0,89,0.00,,,0.00,Wunderground v.1.15,2013-03-23 15:03:00,
2013-03-23 10:04:00,48.9,45.8,29.67,East,95,0.0,4.0,89,0.00,,,0.00,Wunderground v.1.15,2013-03-23 15:04:00,
2013-03-23 10:06:00,49.0,45.9,29.67,East,84,0.0,4.0,89,0.00,,,0.00,Wunderground v.1.15,2013-03-23 15:06:00,
2013-03-23 10:09:00,49.1,46.0,29.68,WNW,298,0.0,4.0,89,0.00,,,0.00,Wunderground v.1.15,2013-03-23 15:09:00,
2013-03-23 10:11:00,49.2,45.8,29.67,ENE,57,0.0,4.0,88,0.00,,,0.00,Wunderground v.1.15,2013-03-23 15:11:00,
2013-03-23 10:14:00,49.2,45.8,29.67,SE,124,0.0,5.0,88,0.00,,,0.00,Wunderground v.1.15,2013-03-23 15:14:00,
2013-03-23 10:15:00,49.2,45.8,29.67,ESE,107,1.0,5.0,88,0.00,,,0.00,Wunderground v.1.15,2013-03-23 15:15:00,
2013-03-23 10:17:00,49.2,45.8,29.67,NNE,31,0.0,5.0,88,0.00,,,0.00,Wunderground v.1.15,2013-03-23 15:17:00,
2013-03-23 10:20:00,49.2,45.8,29.66,NW,325,0.0,5.0,88,0.00,,,0.00,Wunderground v.1.15,2013-03-23 15:20:00,
2013-03-23 10:22:00,49.2,45.8,29.67,East,91,2.0,5.0,88,0.00,,,0.00,Wunderground v.1.15,2013-03-23 15:22:00,
2013-03-23 10:25:00,49.4,46.3,29.67,SW,228,0.0,1.0,89,0.00,,,0.00,Wunderground v.1.15,2013-03-23 15:25:00,
2013-03-23 10:27:00,49.5,46.1,29.67,East,87,0.0,1.0,88,0.00,,,0.00,Wunderground v.1.15,2013-03-23 15:27:00,
2013-03-23 10:30:00,49.5,46.1,29.67,East,98,1.0,7.0,88,0.00,,,0.00,Wunderground v.1.15,2013-03-23 15:30:00,
2013-03-23 10:32:00,49.5,46.1,29.67,East,98,1.0,7.0,88,0.00,,,0.00,Wunderground v.1.15,2013-03-23 15:32:00,
2013-03-23 10:35:00,49.5,45.8,29.66,NNW,333,0.0,4.0,87,0.00,,,0.00,Wunderground v.1.15,2013-03-23 15:35:00,
2013-03-23 10:36:00,49.4,45.7,29.66,NNW,333,1.0,4.0,87,0.00,,,0.00,Wunderground v.1.15,2013-03-23 15:36:00,
2013-03-23 10:37:00,49.5,45.8,29.66,NW,307,3.0,4.0,87,0.00,,,0.00,Wunderground v.1.15,2013-03-23 15:37:00,
2013-03-23 10:40:00,49.4,45.7,29.67,NE,51,3.0,6.0,87,0.00,,,0.00,Wunderground v.1.15,2013-03-23 15:40:00,
2013-03-23 10:41:00,49.4,45.7,29.67,NNE,30,0.0,6.0,87,0.00,,,0.00,Wunderground v.1.15,2013-03-23 15:41:00,
2013-03-23 10:42:00,49.4,46.0,29.66,South,187,2.0,6.0,88,0.00,,,0.00,Wunderground v.1.15,2013-03-23 15:42:00,
2013-03-23 10:45:00,49.5,45.8,29.66,ESE,106,2.0,3.0,87,0.00,,,0.00,Wunderground v.1.15,2013-03-23 15:45:00,
2013-03-23 10:47:00,49.5,45.8,29.67,NNW,333,0.0,3.0,87,0.00,,,0.00,Wunderground v.1.15,2013-03-23 15:47:00,
2013-03-23 10:52:00,49.5,46.1,29.65,East,90,0.0,6.0,88,0.00,,,0.00,Wunderground v.1.15,2013-03-23 15:52:00,
2013-03-23 10:53:00,49.5,46.1,29.65,East,90,0.0,1.0,88,0.00,,,0.00,Wunderground v.1.15,2013-03-23 15:53:00,
2013-03-23 10:57:00,49.6,46.2,29.66,East,88,2.0,5.0,88,0.00,,,0.00,Wunderground v.1.15,2013-03-23 15:57:00,
2013-03-23 10:58:00,49.6,46.2,29.66,NE,44,1.0,5.0,88,0.00,,,0.00,Wunderground v.1.15,2013-03-23 15:58:00,
2013-03-23 11:03:00,49.7,46.0,29.66,East,85,0.0,3.0,87,0.00,,,0.00,Wunderground v.1.15,2013-03-23 16:03:00,
2013-03-23 11:04:00,49.7,46.0,29.66,ESE,121,0.0,3.0,87,0.00,,,0.00,Wunderground v.1.15,2013-03-23 16:04:00,
2013-03-23 11:08:00,49.9,46.2,29.65,SSE,150,2.0,3.0,87,0.00,,,0.00,Wunderground v.1.15,2013-03-23 16:08:00,
2013-03-23 11:09:00,50.0,46.6,29.66,SE,141,3.0,6.0,88,0.00,,,0.00,Wunderground v.1.15,2013-03-23 16:09:00,
2013-03-23 11:13:00,50.1,46.4,29.66,NE,55,0.0,1.0,87,0.00,,,0.00,Wunderground v.1.15,2013-03-23 16:13:00,
2013-03-23 11:14:00,50.1,46.4,29.66,ENE,76,0.0,1.0,87,0.00,,,0.00,Wunderground v.1.15,2013-03-23 16:14:00,
2013-03-23 11:18:00,50.1,46.4,29.66,SE,146,0.0,3.0,87,0.00,,,0.00,Wunderground v.1.15,2013-03-23 16:18:00,
2013-03-23 11:19:00,50.1,46.4,29.66,WSW,248,0.0,3.0,87,0.00,,,0.00,Wunderground v.1.15,2013-03-23 16:19:00,
2013-03-23 11:23:00,50.2,46.5,29.67,NNW,333,0.0,1.0,87,0.00,,,0.00,Wunderground v.1.15,2013-03-23 16:23:00,
2013-03-23 11:24:00,50.2,46.5,29.67,NNW,346,3.0,3.0,87,0.00,,,0.00,Wunderground v.1.15,2013-03-23 16:24:00,
2013-03-23 11:25:00,50.2,46.2,29.67,NNE,30,0.0,3.0,86,0.00,,,0.00,Wunderground v.1.15,2013-03-23 16:25:00,
2013-03-23 11:28:00,50.2,46.5,29.67,East,101,1.0,4.0,87,0.00,,,0.00,Wunderground v.1.15,2013-03-23 16:28:00,
2013-03-23 11:29:00,50.3,46.6,29.67,East,101,0.0,4.0,87,0.00,,,0.00,Wunderground v.1.15,2013-03-23 16:29:00,
2013-03-23 11:30:00,50.3,46.6,29.66,SE,136,0.0,4.0,87,0.00,,,0.00,Wunderground v.1.15,2013-03-23 16:30:00,
2013-03-23 11:34:00,50.4,47.0,29.65,SE,143,1.0,3.0,88,0.00,,,0.00,Wunderground v.1.15,2013-03-23 16:34:00,
2013-03-23 11:35:00,50.4,46.7,29.65,NE,53,5.0,5.0,87,0.00,,,0.00,Wunderground v.1.15,2013-03-23 16:35:00,
2013-03-23 11:37:00,50.5,46.8,29.66,East,92,0.0,5.0,87,0.00,,,0.00,Wunderground v.1.15,2013-03-23 16:37:00,
2013-03-23 11:39:00,50.5,46.8,29.66,SE,145,0.0,5.0,87,0.00,,,0.00,Wunderground v.1.15,2013-03-23 16:39:00,
2013-03-23 11:40:00,50.5,46.8,29.66,SE,145,0.0,5.0,87,0.00,,,0.00,Wunderground v.1.15,2013-03-23 16:40:00,
2013-03-23 11:42:00,50.5,46.8,29.67,East,87,0.0,5.0,87,0.00,,,0.00,Wunderground v.1.15,2013-03-23 16:42:00,
2013-03-23 11:45:00,50.6,46.9,29.66,ESE,115,2.0,2.0,87,0.00,,,0.00,Wunderground v.1.15,2013-03-23 16:45:00,
2013-03-23 11:46:00,50.6,46.9,29.66,ESE,114,0.0,2.0,87,0.00,,,0.00,Wunderground v.1.15,2013-03-23 16:46:00,
2013-03-23 11:47:00,50.6,46.6,29.66,SSE,150,0.0,2.0,86,0.00,,,0.00,Wunderground v.1.15,2013-03-23 16:47:00,
2013-03-23 11:48:00,50.6,46.6,29.66,SSE,150,0.0,2.0,86,0.00,,,0.00,Wunderground v.1.15,2013-03-23 16:48:00,
2013-03-23 11:50:00,50.6,46.6,29.67,SSE,150,0.0,2.0,86,0.00,,,0.00,Wunderground v.1.15,2013-03-23 16:50:00,
2013-03-23 11:52:00,50.6,46.6,29.67,SSE,149,0.0,2.0,86,0.00,,,0.00,Wunderground v.1.15,2013-03-23 16:52:00,
2013-03-23 11:54:00,50.6,46.9,29.67,SE,139,0.0,0.0,87,0.00,,,0.00,Wunderground v.1.15,2013-03-23 16:54:00,
2013-03-23 11:55:00,50.6,46.9,29.67,SE,139,0.0,0.0,87,0.00,,,0.00,Wunderground v.1.15,2013-03-23 16:55:00,
2013-03-23 11:57:00,50.6,46.9,29.67,SE,139,0.0,1.0,87,0.00,,,0.00,Wunderground v.1.15,2013-03-23 16:57:00,
2013-03-23 11:58:00,50.6,46.9,29.67,SE,138,0.0,1.0,87,0.00,,,0.00,Wunderground v.1.15,2013-03-23 16:58:00,
2013-03-23 11:59:00,50.6,46.9,29.67,SE,138,0.0,1.0,87,0.00,,,0.00,Wunderground v.1.15,2013-03-23 16:59:00,
2013-03-23 12:00:00,50.6,46.9,29.67,SE,139,0.0,1.0,87,0.00,,,0.00,Wunderground v.1.15,2013-03-23 17:00:00,
2013-03-23 12:02:00,50.7,47.0,29.67,SSW,202,0.0,0.0,87,0.00,,,0.00,Wunderground v.1.15,2013-03-23 17:02:00,
2013-03-23 12:03:00,50.6,46.9,29.67,SSW,202,0.0,0.0,87,0.00,,,0.00,Wunderground v.1.15,2013-03-23 17:03:00,
2013-03-23 12:04:00,50.7,47.0,29.67,SSW,202,0.0,0.0,87,0.00,,,0.00,Wunderground v.1.15,2013-03-23 17:04:00,
2013-03-23 12:07:00,50.7,47.0,29.67,South,188,0.0,0.0,87,0.00,,,0.00,Wunderground v.1.15,2013-03-23 17:07:00,
2013-03-23 12:08:00,50.7,47.0,29.67,South,180,0.0,0.0,87,0.00,,,0.00,Wunderground v.1.15,2013-03-23 17:08:00,
2013-03-23 12:09:00,50.7,47.0,29.67,SW,220,0.0,0.0,87,0.00,,,0.00,Wunderground v.1.15,2013-03-23 17:09:00,
2013-03-23 12:12:00,50.7,47.0,29.67,ENE,74,2.0,2.0,87,0.00,,,0.00,Wunderground v.1.15,2013-03-23 17:12:00,
2013-03-23 12:13:00,50.7,46.7,29.67,East,82,0.0,2.0,86,0.00,,,0.00,Wunderground v.1.15,2013-03-23 17:13:00,
2013-03-23 12:14:00,50.7,46.7,29.67,NE,44,0.0,2.0,86,0.00,,,0.00,Wunderground v.1.15,2013-03-23 17:14:00,
2013-03-23 12:17:00,50.7,46.7,29.67,ENE,61,0.0,6.0,86,0.00,,,0.00,Wunderground v.1.15,2013-03-23 17:17:00,
2013-03-23 12:18:00,50.7,46.7,29.68,ENE,61,0.0,6.0,86,0.00,,,0.00,Wunderground v.1.15,2013-03-23 17:18:00,
2013-03-23 12:19:00,50.6,46.9,29.67,ESE,109,0.0,6.0,87,0.00,,,0.00,Wunderground v.1.15,2013-03-23 17:19:00,
2013-03-23 12:22:00,50.6,46.9,29.67,ESE,114,0.0,6.0,87,0.00,,,0.00,Wunderground v.1.15,2013-03-23 17:22:00,
2013-03-23 12:23:00,50.6,46.9,29.67,ESE,114,0.0,0.0,87,0.00,,,0.00,Wunderground v.1.15,2013-03-23 17:23:00,
2013-03-23 12:25:00,50.6,46.9,29.67,ESE,114,0.0,0.0,87,0.00,,,0.00,Wunderground v.1.15,2013-03-23 17:25:00,
2013-03-23 12:27:00,50.6,46.9,29.67,ESE,114,0.0,0.0,87,0.00,,,0.00,Wunderground v.1.15,2013-03-23 17:27:00,
2013-03-23 12:28:00,50.6,46.9,29.67,ESE,114,0.0,0.0,87,0.00,,,0.00,Wunderground v.1.15,2013-03-23 17:28:00,
2013-03-23 12:30:00,50.6,46.9,29.66,ESE,114,0.0,0.0,87,0.00,,,0.00,Wunderground v.1.15,2013-03-23 17:30:00,
2013-03-23 12:33:00,50.6,46.9,29.66,ESE,114,0.0,0.0,87,0.00,,,0.00,Wunderground v.1.15,2013-03-23 17:33:00,
2013-03-23 12:34:00,50.6,46.9,29.66,ESE,114,0.0,0.0,87,0.00,,,0.00,Wunderground v.1.15,2013-03-23 17:34:00,
2013-03-23 12:36:00,50.6,46.9,29.66,East,89,0.0,5.0,87,0.00,,,0.00,Wunderground v.1.15,2013-03-23 17:36:00,
2013-03-23 12:38:00,50.5,46.8,29.65,ENE,78,0.0,5.0,87,0.00,,,0.00,Wunderground v.1.15,2013-03-23 17:38:00,
2013-03-23 12:39:00,50.5,46.8,29.65,ENE,65,0.0,5.0,87,0.00,,,0.00,Wunderground v.1.15,2013-03-23 17:39:00,
2013-03-23 12:42:00,50.5,46.8,29.65,ENE,71,0.0,5.0,87,0.00,,,0.00,Wunderground v.1.15,2013-03-23 17:42:00,
2013-03-23 12:43:00,50.5,46.8,29.65,SE,131,0.0,1.0,87,0.00,,,0.00,Wunderground v.1.15,2013-03-23 17:43:00,
2013-03-23 12:44:00,50.5,46.8,29.65,East,80,1.0,4.0,87,0.00,,,0.00,Wunderground v.1.15,2013-03-23 17:44:00,
2013-03-23 12:47:00,50.5,46.8,29.64,SSE,149,2.0,4.0,87,0.00,,,0.00,Wunderground v.1.15,2013-03-23 17:47:00,
2013-03-23 12:48:00,50.5,46.8,29.64,SE,136,0.0,4.0,87,0.00,,,0.00,Wunderground v.1.15,2013-03-23 17:48:00,
2013-03-23 12:49:00,50.5,46.8,29.64,ESE,119,0.0,4.0,87,0.00,,,0.00,Wunderground v.1.15,2013-03-23 17:49:00,
2013-03-23 12:52:00,50.5,46.8,29.64,ESE,106,2.0,4.0,87,0.00,,,0.00,Wunderground v.1.15,2013-03-23 17:52:00,
2013-03-23 12:54:00,50.4,46.7,29.64,North,5,0.0,3.0,87,0.00,,,0.00,Wunderground v.1.15,2013-03-23 17:54:00,
2013-03-23 12:55:00,50.4,46.7,29.64,North,5,0.0,3.0,87,0.00,,,0.00,Wunderground v.1.15,2013-03-23 17:55:00,
2013-03-23 12:57:00,50.4,46.7,29.64,NNE,21,0.0,3.0,87,0.00,,,0.00,Wunderground v.1.15,2013-03-23 17:57:00,
2013-03-23 12:59:00,50.4,46.7,29.64,NNW,331,0.0,3.0,87,0.00,,,0.00,Wunderground v.1.15,2013-03-23 17:59:00,
2013-03-23 13:00:00,50.4,46.7,29.64,NW,315,0.0,3.0,87,0.00,,,0.00,Wunderground v.1.15,2013-03-23 18:00:00,
2013-03-23 13:02:00,50.4,46.7,29.64,East,82,1.0,3.0,87,0.00,,,0.00,Wunderground v.1.15,2013-03-23 18:02:00,
2013-03-23 13:04:00,50.3,46.6,29.64,East,95,0.0,0.0,87,0.00,,,0.00,Wunderground v.1.15,2013-03-23 18:04:00,
2013-03-23 13:05:00,50.4,47.0,29.64,East,89,0.0,2.0,88,0.00,,,0.00,Wunderground v.1.15,2013-03-23 18:05:00,
2013-03-23 13:07:00,50.3,46.9,29.64,SE,131,0.0,2.0,88,0.00,,,0.00,Wunderground v.1.15,2013-03-23 18:07:00,
2013-03-23 13:09:00,50.3,46.9,29.64,SE,129,0.0,2.0,88,0.00,,,0.00,Wunderground v.1.15,2013-03-23 18:09:00,
2013-03-23 13:10:00,50.3,46.9,29.64,SE,129,0.0,2.0,88,0.00,,,0.00,Wunderground v.1.15,2013-03-23 18:10:00,
2013-03-23 13:13:00,50.3,46.9,29.64,ESE,102,0.0,1.0,88,0.00,,,0.00,Wunderground v.1.15,2013-03-23 18:13:00,
2013-03-23 13:14:00,50.3,46.9,29.64,ESE,105,0.0,1.0,88,0.00,,,0.00,Wunderground v.1.15,2013-03-23 18:14:00,
2013-03-23 13:15:00,50.3,46.9,29.64,ENE,61,0.0,1.0,88,0.00,,,0.00,Wunderground v.1.15,2013-03-23 18:15:00,
2013-03-23 13:18:00,50.3,46.9,29.65,NW,313,0.0,1.0,88,0.00,,,0.00,Wunderground v.1.15,2013-03-23 18:18:00,
2013-03-23 13:19:00,50.2,46.8,29.64,NW,313,0.0,1.0,88,0.00,,,0.00,Wunderground v.1.15,2013-03-23 18:19:00,
2013-03-23 13:20:00,50.2,46.8,29.64,NE,37,3.0,3.0,88,0.00,,,0.00,Wunderground v.1.15,2013-03-23 18:20:00,
2013-03-23 13:23:00,50.1,46.7,29.63,East,79,0.0,1.0,88,0.00,,,0.01,Wunderground v.1.15,2013-03-23 18:23:00,
2013-03-23 13:24:00,50.1,46.7,29.63,East,79,0.0,1.0,88,0.00,,,0.01,Wunderground v.1.15,2013-03-23 18:24:00,
2013-03-23 13:25:00,50.1,47.0,29.63,East,79,0.0,1.0,89,0.00,,,0.01,Wunderground v.1.15,2013-03-23 18:25:00,
2013-03-23 13:26:00,50.1,47.0,29.63,East,79,0.0,1.0,89,0.00,,,0.01,Wunderground v.1.15,2013-03-23 18:26:00,
2013-03-23 13:29:00,50.0,46.9,29.62,East,96,0.0,2.0,89,0.00,,,0.01,Wunderground v.1.15,2013-03-23 18:29:00,
2013-03-23 13:30:00,50.0,47.2,29.62,East,94,0.0,2.0,90,0.00,,,0.01,Wunderground v.1.15,2013-03-23 18:30:00,
2013-03-23 13:31:00,50.0,47.2,29.62,North,355,3.0,3.0,90,0.00,,,0.01,Wunderground v.1.15,2013-03-23 18:31:00,
2013-03-23 13:34:00,49.9,47.1,29.62,NE,34,0.0,2.0,90,0.00,,,0.01,Wunderground v.1.15,2013-03-23 18:34:00,
2013-03-23 13:35:00,49.9,47.1,29.61,East,86,0.0,5.0,90,0.00,,,0.01,Wunderground v.1.15,2013-03-23 18:35:00,
2013-03-23 13:36:00,49.9,47.1,29.61,ESE,106,1.0,5.0,90,0.00,,,0.01,Wunderground v.1.15,2013-03-23 18:36:00,
2013-03-23 13:37:00,49.9,47.1,29.61,ESE,107,0.0,5.0,90,0.00,,,0.01,Wunderground v.1.15,2013-03-23 18:37:00,
2013-03-23 13:39:00,49.9,47.4,29.62,SSW,198,0.0,5.0,91,0.00,,,0.01,Wunderground v.1.15,2013-03-23 18:39:00,
2013-03-23 13:40:00,49.9,47.4,29.63,SSW,198,0.0,5.0,91,0.00,,,0.01,Wunderground v.1.15,2013-03-23 18:40:00,
2013-03-23 13:42:00,49.9,47.4,29.63,SSW,198,0.0,1.0,91,0.00,,,0.01,Wunderground v.1.15,2013-03-23 18:42:00,
2013-03-23 13:45:00,49.9,47.4,29.63,SSW,198,0.0,1.0,91,0.00,,,0.01,Wunderground v.1.15,2013-03-23 18:45:00,
2013-03-23 13:47:00,50.0,47.5,29.63,SSW,198,0.0,1.0,91,0.00,,,0.01,Wunderground v.1.15,2013-03-23 18:47:00,
2013-03-23 13:48:00,50.0,47.5,29.63,SSW,198,0.0,1.0,91,0.00,,,0.01,Wunderground v.1.15,2013-03-23 18:48:00,
2013-03-23 13:50:00,50.2,48.0,29.61,ESE,111,5.0,5.0,92,0.00,,,0.01,Wunderground v.1.15,2013-03-23 18:50:00,
2013-03-23 13:51:00,50.2,48.0,29.60,ESE,103,4.0,5.0,92,0.00,,,0.01,Wunderground v.1.15,2013-03-23 18:51:00,
2013-03-23 13:53:00,50.3,48.1,29.60,ESE,113,1.0,1.0,92,0.00,,,0.01,Wunderground v.1.15,2013-03-23 18:53:00,
2013-03-23 13:55:00,50.4,48.2,29.60,SE,129,0.0,4.0,92,0.00,,,0.01,Wunderground v.1.15,2013-03-23 18:55:00,
2013-03-23 13:56:00,50.4,48.2,29.60,SE,129,0.0,4.0,92,0.00,,,0.01,Wunderground v.1.15,2013-03-23 18:56:00,
2013-03-23 13:58:00,50.6,48.4,29.60,ENE,61,3.0,4.0,92,0.00,,,0.01,Wunderground v.1.15,2013-03-23 18:58:00,
2013-03-23 14:01:00,50.7,48.5,29.61,South,184,2.0,4.0,92,0.00,,,0.01,Wunderground v.1.15,2013-03-23 19:01:00,
2013-03-23 14:03:00,50.6,48.1,29.61,SE,136,4.0,4.0,91,0.00,,,0.01,Wunderground v.1.15,2013-03-23 19:03:00,
2013-03-23 14:06:00,50.6,48.1,29.61,SSE,148,0.0,5.0,91,0.00,,,0.01,Wunderground v.1.15,2013-03-23 19:06:00,
2013-03-23 14:07:00,50.6,48.1,29.61,SSE,148,0.0,5.0,91,0.00,,,0.01,Wunderground v.1.15,2013-03-23 19:07:00,
2013-03-23 14:09:00,50.6,48.1,29.59,ESE,107,1.0,5.0,91,0.00,,,0.01,Wunderground v.1.15,2013-03-23 19:09:00,
2013-03-23 14:12:00,50.6,48.1,29.60,SE,132,4.0,8.0,91,0.00,,,0.02,Wunderground v.1.15,2013-03-23 19:12:00,
2013-03-23 14:14:00,50.6,47.8,29.60,SE,144,1.0,6.0,90,0.00,,,0.02,Wunderground v.1.15,2013-03-23 19:14:00,
2013-03-23 14:17:00,50.6,48.1,29.61,SSE,150,0.0,6.0,91,0.00,,,0.02,Wunderground v.1.15,2013-03-23 19:17:00,
2013-03-23 14:20:00,50.6,48.1,29.60,SSE,163,3.0,6.0,91,0.00,,,0.02,Wunderground v.1.15,2013-03-23 19:20:00,
2013-03-23 14:22:00,50.6,47.8,29.60,NE,46,0.0,1.0,90,0.00,,,0.02,Wunderground v.1.15,2013-03-23 19:22:00,
2013-03-23 14:25:00,50.5,47.7,29.60,East,84,0.0,4.0,90,0.00,,,0.02,Wunderground v.1.15,2013-03-23 19:25:00,
2013-03-23 14:27:00,50.5,47.7,29.60,ENE,58,0.0,4.0,90,0.00,,,0.02,Wunderground v.1.15,2013-03-23 19:27:00,
2013-03-23 14:30:00,50.5,47.7,29.59,ENE,74,2.0,4.0,90,0.00,,,0.02,Wunderground v.1.15,2013-03-23 19:30:00,
2013-03-23 14:31:00,50.5,47.7,29.59,ENE,74,0.0,4.0,90,0.00,,,0.02,Wunderground v.1.15,2013-03-23 19:31:00,
2013-03-23 14:32:00,50.5,48.0,29.59,SSE,155,0.0,1.0,91,0.00,,,0.02,Wunderground v.1.15,2013-03-23 19:32:00,
2013-03-23 14:33:00,50.6,48.1,29.59,SSE,155,0.0,1.0,91,0.00,,,0.02,Wunderground v.1.15,2013-03-23 19:33:00,
2013-03-23 14:37:00,50.6,48.1,29.59,South,176,0.0,1.0,91,0.00,,,0.02,Wunderground v.1.15,2013-03-23 19:37:00,
2013-03-23 14:38:00,50.7,48.2,29.59,South,176,0.0,1.0,91,0.00,,,0.02,Wunderground v.1.15,2013-03-23 19:38:00,
2013-03-23 14:42:00,50.7,47.9,29.58,SSE,157,0.0,8.0,90,0.00,,,0.02,Wunderground v.1.15,2013-03-23 19:42:00,
2013-03-23 14:43:00,50.8,48.0,29.58,ESE,116,2.0,3.0,90,0.00,,,0.02,Wunderground v.1.15,2013-03-23 19:43:00,
2013-03-23 14:44:00,50.8,48.0,29.58,ESE,117,0.0,3.0,90,0.00,,,0.02,Wunderground v.1.15,2013-03-23 19:44:00,
2013-03-23 14:47:00,50.8,48.0,29.58,ENE,76,0.0,8.0,90,0.00,,,0.02,Wunderground v.1.15,2013-03-23 19:47:00,
2013-03-23 14:48:00,50.8,48.0,29.58,North,360,0.0,8.0,90,0.00,,,0.02,Wunderground v.1.15,2013-03-23 19:48:00,
2013-03-23 14:49:00,50.8,48.0,29.58,ENE,78,1.0,8.0,90,0.00,,,0.02,Wunderground v.1.15,2013-03-23 19:49:00,
2013-03-23 14:52:00,50.9,48.1,29.58,East,99,0.0,1.0,90,0.00,,,0.02,Wunderground v.1.15,2013-03-23 19:52:00,
2013-03-23 14:53:00,50.9,48.1,29.58,East,87,0.0,1.0,90,0.00,,,0.02,Wunderground v.1.15,2013-03-23 19:53:00,
2013-03-23 14:54:00,50.9,48.1,29.58,NE,56,0.0,1.0,90,0.00,,,0.02,Wunderground v.1.15,2013-03-23 19:54:00,
2013-03-23 14:57:00,51.0,48.2,29.58,NNW,333,0.0,1.0,90,0.00,,,0.02,Wunderground v.1.15,2013-03-23 19:57:00,
2013-03-23 14:58:00,51.0,48.2,29.58,NE,52,0.0,1.0,90,0.00,,,0.02,Wunderground v.1.15,2013-03-23 19:58:00,
2013-03-23 14:59:00,51.0,48.2,29.58,NE,53,0.0,1.0,90,0.00,,,0.02,Wunderground v.1.15,2013-03-23 19:59:00,
2013-03-23 15:03:00,51.0,48.2,29.58,SW,221,3.0,4.0,90,0.00,,,0.02,Wunderground v.1.15,2013-03-23 20:03:00,
2013-03-23 15:04:00,51.0,48.2,29.58,East,98,0.0,4.0,90,0.00,,,0.02,Wunderground v.1.15,2013-03-23 20:04:00,
2013-03-23 15:08:00,51.0,47.9,29.58,ENE,74,0.0,4.0,89,0.00,,,0.02,Wunderground v.1.15,2013-03-23 20:08:00,
2013-03-23 15:09:00,51.0,48.2,29.58,ENE,76,2.0,4.0,90,0.00,,,0.02,Wunderground v.1.15,2013-03-23 20:09:00,
2013-03-23 15:10:00,51.0,48.2,29.58,ENE,76,0.0,4.0,90,0.00,,,0.02,Wunderground v.1.15,2013-03-23 20:10:00,
2013-03-23 15:13:00,51.2,48.4,29.57,ENE,71,2.0,3.0,90,0.00,,,0.02,Wunderground v.1.15,2013-03-23 20:13:00,
2013-03-23 15:14:00,51.2,48.4,29.57,SE,134,0.0,3.0,90,0.00,,,0.02,Wunderground v.1.15,2013-03-23 20:14:00,
2013-03-23 15:15:00,51.2,48.4,29.57,SSE,168,0.0,3.0,90,0.00,,,0.02,Wunderground v.1.15,2013-03-23 20:15:00,
2013-03-23 15:19:00,51.5,48.4,29.57,ESE,110,2.0,7.0,89,0.00,,,0.02,Wunderground v.1.15,2013-03-23 20:19:00,
2013-03-23 15:20:00,51.5,48.7,29.56,East,98,0.0,7.0,90,0.00,,,0.02,Wunderground v.1.15,2013-03-23 20:20:00,
2013-03-23 15:24:00,51.9,49.1,29.55,WSW,254,0.0,2.0,90,0.00,,,0.02,Wunderground v.1.15,2013-03-23 20:24:00,
2013-03-23 15:25:00,51.9,49.4,29.55,ENE,72,4.0,4.0,91,0.00,,,0.02,Wunderground v.1.15,2013-03-23 20:25:00,
2013-03-23 15:26:00,52.0,49.2,29.55,North,349,0.0,4.0,90,0.00,,,0.02,Wunderground v.1.15,2013-03-23 20:26:00,
2013-03-23 15:29:00,52.5,49.7,29.55,NNW,327,0.0,5.0,90,0.00,,,0.02,Wunderground v.1.15,2013-03-23 20:29:00,
2013-03-23 15:30:00,52.6,49.8,29.54,SSE,148,0.0,5.0,90,0.00,,,0.02,Wunderground v.1.15,2013-03-23 20:30:00,
2013-03-23 15:31:00,52.6,49.8,29.54,WNW,287,2.0,5.0,90,0.00,,,0.02,Wunderground v.1.15,2013-03-23 20:31:00,
2013-03-23 15:33:00,52.9,50.0,29.54,SE,136,2.0,2.0,90,0.00,,,0.02,Wunderground v.1.15,2013-03-23 20:33:00,
2013-03-23 15:35:00,53.2,50.0,29.54,ENE,76,2.0,4.0,89,0.00,,,0.02,Wunderground v.1.15,2013-03-23 20:35:00,
2013-03-23 15:37:00,53.3,49.8,29.54,ESE,104,4.0,7.0,88,0.00,,,0.02,Wunderground v.1.15,2013-03-23 20:37:00,
2013-03-23 15:38:00,53.3,49.5,29.54,North,360,7.0,8.0,87,0.00,,,0.02,Wunderground v.1.15,2013-03-23 20:38:00,
2013-03-23 15:41:00,53.4,49.6,29.53,ENE,71,3.0,8.0,87,0.00,,,0.02,Wunderground v.1.15,2013-03-23 20:41:00,
2013-03-23 15:42:00,53.4,49.3,29.53,NNW,327,2.0,5.0,86,0.00,,,0.02,Wunderground v.1.15,2013-03-23 20:42:00,
2013-03-23 15:44:00,53.4,49.6,29.52,ESE,114,0.0,6.0,87,0.00,,,0.02,Wunderground v.1.15,2013-03-23 20:44:00,
2013-03-23 15:46:00,53.5,49.4,29.53,SSE,168,1.0,9.0,86,0.00,,,0.02,Wunderground v.1.15,2013-03-23 20:46:00,
2013-03-23 15:48:00,53.6,49.8,29.54,East,82,5.0,9.0,87,0.00,,,0.02,Wunderground v.1.15,2013-03-23 20:48:00,
2013-03-23 15:49:00,53.7,49.9,29.54,East,79,3.0,9.0,87,0.00,,,0.02,Wunderground v.1.15,2013-03-23 20:49:00,
2013-03-23 15:52:00,53.9,50.4,29.53,South,173,3.0,9.0,88,0.00,,,0.02,Wunderground v.1.15,2013-03-23 20:52:00,
2013-03-23 15:54:00,54.0,49.9,29.53,SSE,166,3.0,8.0,86,0.00,,,0.02,Wunderground v.1.15,2013-03-23 20:54:00,
2013-03-23 15:55:00,54.1,50.0,29.53,NE,43,2.0,8.0,86,0.00,,,0.02,Wunderground v.1.15,2013-03-23 20:55:00,
2013-03-23 15:57:00,54.1,49.7,29.53,SE,128,0.0,8.0,85,0.00,,,0.02,Wunderground v.1.15,2013-03-23 20:57:00,
2013-03-23 15:59:00,54.2,50.1,29.53,SSW,195,2.0,8.0,86,0.00,,,0.02,Wunderground v.1.15,2013-03-23 20:59:00,
2013-03-23 16:00:00,54.2,50.1,29.53,SSE,164,0.0,8.0,86,0.00,,,0.02,Wunderground v.1.15,2013-03-23 21:00:00,
2013-03-23 16:03:00,54.2,49.8,29.54,ESE,121,0.0,2.0,85,0.00,,,0.02,Wunderground v.1.15,2013-03-23 21:03:00,
2013-03-23 16:04:00,54.1,49.4,29.54,SSE,164,0.0,5.0,84,0.00,,,0.02,Wunderground v.1.15,2013-03-23 21:04:00,
2013-03-23 16:05:00,54.1,49.7,29.54,SE,146,3.0,5.0,85,0.00,,,0.02,Wunderground v.1.15,2013-03-23 21:05:00,
2013-03-23 16:08:00,54.0,49.3,29.54,East,94,0.0,6.0,84,0.00,,,0.02,Wunderground v.1.15,2013-03-23 21:08:00,
2013-03-23 16:09:00,54.0,49.6,29.53,ENE,73,2.0,6.0,85,0.00,,,0.02,Wunderground v.1.15,2013-03-23 21:09:00,
2013-03-23 16:10:00,54.0,49.6,29.53,NNE,25,2.0,6.0,85,0.00,,,0.02,Wunderground v.1.15,2013-03-23 21:10:00,
2013-03-23 16:13:00,54.0,49.6,29.53,East,92,2.0,5.0,85,0.00,,,0.02,Wunderground v.1.15,2013-03-23 21:13:00,
2013-03-23 16:14:00,54.0,49.6,29.53,ENE,65,0.0,5.0,85,0.00,,,0.02,Wunderground v.1.15,2013-03-23 21:14:00,
2013-03-23 16:15:00,54.1,49.7,29.53,SW,230,1.0,5.0,85,0.00,,,0.02,Wunderground v.1.15,2013-03-23 21:15:00,
2013-03-23 16:19:00,54.1,49.7,29.52,NW,317,0.0,6.0,85,0.00,,,0.02,Wunderground v.1.15,2013-03-23 21:19:00,
2013-03-23 16:20:00,54.2,49.8,29.52,ESE,104,0.0,6.0,85,0.00,,,0.02,Wunderground v.1.15,2013-03-23 21:20:00,
2013-03-23 16:24:00,54.3,49.9,29.51,SE,128,4.0,6.0,85,0.00,,,0.02,Wunderground v.1.15,2013-03-23 21:24:00,
2013-03-23 16:25:00,54.4,50.0,29.51,ESE,111,1.0,6.0,85,0.00,,,0.02,Wunderground v.1.15,2013-03-23 21:25:00,
2013-03-23 16:27:00,54.4,50.0,29.51,SE,138,0.0,6.0,85,0.00,,,0.02,Wunderground v.1.15,2013-03-23 21:27:00,
2013-03-23 16:29:00,54.5,50.1,29.51,NE,56,0.0,6.0,85,0.00,,,0.02,Wunderground v.1.15,2013-03-23 21:29:00,
2013-03-23 16:30:00,54.5,50.1,29.51,SSE,155,4.0,6.0,85,0.00,,,0.02,Wunderground v.1.15,2013-03-23 21:30:00,
2013-03-23 16:33:00,54.6,50.2,29.51,SSE,165,0.0,2.0,85,0.00,,,0.02,Wunderground v.1.15,2013-03-23 21:33:00,
2013-03-23 16:34:00,54.6,50.2,29.51,ENE,57,2.0,3.0,85,0.00,,,0.02,Wunderground v.1.15,2013-03-23 21:34:00,
2013-03-23 16:35:00,54.6,50.2,29.51,East,98,0.0,3.0,85,0.00,,,0.02,Wunderground v.1.15,2013-03-23 21:35:00,
2013-03-23 16:38:00,54.6,50.2,29.51,ENE,57,3.0,9.0,85,0.00,,,0.02,Wunderground v.1.15,2013-03-23 21:38:00,
2013-03-23 16:39:00,54.7,50.0,29.51,East,82,7.0,9.0,84,0.00,,,0.02,Wunderground v.1.15,2013-03-23 21:39:00,
2013-03-23 16:40:00,54.7,50.0,29.51,SE,136,3.0,9.0,84,0.00,,,0.02,Wunderground v.1.15,2013-03-23 21:40:00,
2013-03-23 16:43:00,54.6,49.9,29.52,ENE,75,1.0,3.0,84,0.00,,,0.02,Wunderground v.1.15,2013-03-23 21:43:00,
2013-03-23 16:45:00,54.6,49.9,29.52,SSE,155,1.0,4.0,84,0.00,,,0.02,Wunderground v.1.15,2013-03-23 21:45:00,
2013-03-23 16:48:00,54.6,49.9,29.51,SSE,155,0.0,4.0,84,0.00,,,0.02,Wunderground v.1.15,2013-03-23 21:48:00,
2013-03-23 16:50:00,54.6,49.9,29.51,SSE,155,2.0,4.0,84,0.00,,,0.02,Wunderground v.1.15,2013-03-23 21:50:00,
2013-03-23 16:54:00,54.5,49.8,29.50,ESE,105,0.0,1.0,84,0.00,,,0.02,Wunderground v.1.15,2013-03-23 21:54:00,
2013-03-23 16:55:00,54.5,49.8,29.50,NNW,348,3.0,6.0,84,0.00,,,0.02,Wunderground v.1.15,2013-03-23 21:55:00,
2013-03-23 16:56:00,54.5,49.8,29.50,SSE,158,2.0,6.0,84,0.00,,,0.02,Wunderground v.1.15,2013-03-23 21:56:00,
2013-03-23 16:59:00,54.6,49.9,29.51,SE,131,0.0,6.0,84,0.00,,,0.02,Wunderground v.1.15,2013-03-23 21:59:00,
2013-03-23 17:00:00,54.5,49.8,29.51,ESE,105,1.0,6.0,84,0.00,,,0.02,Wunderground v.1.15,2013-03-23 22:00:00,
2013-03-23 17:01:00,54.6,49.9,29.51,ESE,109,0.0,6.0,84,0.00,,,0.02,Wunderground v.1.15,2013-03-23 22:01:00,
2013-03-23 17:02:00,54.6,49.9,29.51,SE,133,4.0,6.0,84,0.00,,,0.02,Wunderground v.1.15,2013-03-23 22:02:00,
2013-03-23 17:04:00,54.6,50.2,29.50,NNE,32,0.0,4.0,85,0.00,,,0.02,Wunderground v.1.15,2013-03-23 22:04:00,
2013-03-23 17:05:00,54.6,49.9,29.50,South,190,2.0,4.0,84,0.00,,,0.02,Wunderground v.1.15,2013-03-23 22:05:00,
2013-03-23 17:06:00,54.6,50.2,29.50,ESE,108,5.0,5.0,85,0.00,,,0.02,Wunderground v.1.15,2013-03-23 22:06:00,
2013-03-23 17:08:00,54.6,49.9,29.50,ESE,107,3.0,9.0,84,0.00,,,0.02,Wunderground v.1.15,2013-03-23 22:08:00,
2013-03-23 17:09:00,54.5,49.8,29.50,SE,134,9.0,9.0,84,0.00,,,0.02,Wunderground v.1.15,2013-03-23 22:09:00,
2013-03-23 17:11:00,54.5,49.8,29.50,ESE,109,0.0,10.0,84,0.00,,,0.02,Wunderground v.1.15,2013-03-23 22:11:00,
2013-03-23 17:12:00,54.5,49.8,29.50,SSE,163,5.0,10.0,84,0.00,,,0.02,Wunderground v.1.15,2013-03-23 22:12:00,
2013-03-23 17:13:00,54.5,49.8,29.50,East,79,8.0,8.0,84,0.00,,,0.02,Wunderground v.1.15,2013-03-23 22:13:00,
2013-03-23 17:15:00,54.5,49.8,29.50,SE,130,4.0,8.0,84,0.00,,,0.02,Wunderground v.1.15,2013-03-23 22:15:00,
2013-03-23 17:17:00,54.4,49.7,29.49,NNE,22,2.0,8.0,84,0.00,,,0.02,Wunderground v.1.15,2013-03-23 22:17:00,
2013-03-23 17:18:00,54.4,50.0,29.49,ENE,63,0.0,8.0,85,0.00,,,0.02,Wunderground v.1.15,2013-03-23 22:18:00,
2013-03-23 17:22:00,54.4,50.0,29.50,East,99,0.0,8.0,85,0.00,,,0.02,Wunderground v.1.15,2013-03-23 22:22:00,
2013-03-23 17:24:00,54.4,50.0,29.50,East,96,0.0,2.0,85,0.00,,,0.02,Wunderground v.1.15,2013-03-23 22:24:00,
2013-03-23 17:27:00,54.4,50.0,29.51,SE,132,0.0,5.0,85,0.00,,,0.02,Wunderground v.1.15,2013-03-23 22:27:00,
2013-03-23 17:29:00,54.4,50.0,29.51,ENE,77,0.0,5.0,85,0.00,,,0.02,Wunderground v.1.15,2013-03-23 22:29:00,
2013-03-23 17:32:00,54.4,50.0,29.51,SE,129,0.0,1.0,85,0.00,,,0.02,Wunderground v.1.15,2013-03-23 22:32:00,
2013-03-23 17:35:00,54.4,50.0,29.51,ESE,115,0.0,1.0,85,0.00,,,0.02,Wunderground v.1.15,2013-03-23 22:35:00,
2013-03-23 17:37:00,54.4,50.0,29.52,ESE,115,0.0,1.0,85,0.00,,,0.02,Wunderground v.1.15,2013-03-23 22:37:00,
2013-03-23 17:38:00,54.4,50.0,29.52,ESE,116,0.0,1.0,85,0.00,,,0.02,Wunderground v.1.15,2013-03-23 22:38:00,
2013-03-23 17:40:00,54.4,50.0,29.52,ESE,107,0.0,1.0,85,0.00,,,0.02,Wunderground v.1.15,2013-03-23 22:40:00,
2013-03-23 17:43:00,54.4,50.0,29.52,ESE,107,0.0,0.0,85,0.00,,,0.02,Wunderground v.1.15,2013-03-23 22:43:00,
2013-03-23 17:47:00,54.4,50.3,29.51,SE,131,0.0,1.0,86,0.00,,,0.02,Wunderground v.1.15,2013-03-23 22:47:00,
2013-03-23 17:48:00,54.4,50.0,29.51,SE,132,3.0,3.0,85,0.00,,,0.02,Wunderground v.1.15,2013-03-23 22:48:00,
2013-03-23 17:49:00,54.4,50.0,29.51,SE,136,0.0,3.0,85,0.00,,,0.02,Wunderground v.1.15,2013-03-23 22:49:00,
2013-03-23 17:52:00,54.4,50.3,29.51,NW,309,0.0,3.0,86,0.00,,,0.02,Wunderground v.1.15,2013-03-23 22:52:00,
2013-03-23 17:53:00,54.4,50.0,29.51,NW,309,0.0,0.0,85,0.00,,,0.02,Wunderground v.1.15,2013-03-23 22:53:00,
2013-03-23 17:54:00,54.4,50.0,29.51,East,90,2.0,5.0,85,0.00,,,0.02,Wunderground v.1.15,2013-03-23 22:54:00,
2013-03-23 17:55:00,54.4,50.0,29.50,East,99,0.0,5.0,85,0.00,,,0.02,Wunderground v.1.15,2013-03-23 22:55:00,
2013-03-23 17:57:00,54.4,50.0,29.50,ESE,106,0.0,5.0,85,0.00,,,0.02,Wunderground v.1.15,2013-03-23 22:57:00,
2013-03-23 17:58:00,54.3,49.9,29.50,SSE,155,2.0,5.0,85,0.00,,,0.02,Wunderground v.1.15,2013-03-23 22:58:00,
2013-03-23 18:00:00,54.3,49.9,29.50,ENE,74,1.0,5.0,85,0.00,,,0.02,Wunderground v.1.15,2013-03-23 23:00:00,
2013-03-23 18:01:00,54.3,49.9,29.50,East,82,0.0,5.0,85,0.00,,,0.02,Wunderground v.1.15,2013-03-23 23:01:00,
2013-03-23 18:02:00,54.3,49.9,29.50,NE,53,2.0,5.0,85,0.00,,,0.02,Wunderground v.1.15,2013-03-23 23:02:00,
2013-03-23 18:03:00,54.2,49.8,29.50,SE,132,4.0,9.0,85,0.00,,,0.02,Wunderground v.1.15,2013-03-23 23:03:00,
2013-03-23 18:05:00,54.2,49.8,29.50,SSE,159,0.0,9.0,85,0.00,,,0.02,Wunderground v.1.15,2013-03-23 23:05:00,
2013-03-23 18:06:00,54.2,49.8,29.50,SSE,156,6.0,9.0,85,0.00,,,0.02,Wunderground v.1.15,2013-03-23 23:06:00,
2013-03-23 18:08:00,54.2,49.8,29.49,SE,132,0.0,9.0,85,0.00,,,0.02,Wunderground v.1.15,2013-03-23 23:08:00,
2013-03-23 18:10:00,54.1,49.7,29.49,SE,139,4.0,9.0,85,0.00,,,0.02,Wunderground v.1.15,2013-03-23 23:10:00,
2013-03-23 18:12:00,54.1,49.7,29.49,ENE,78,5.0,9.0,85,0.00,,,0.02,Wunderground v.1.15,2013-03-23 23:12:00,
2013-03-23 18:13:00,54.1,49.7,29.49,South,171,0.0,2.0,85,0.00,,,0.02,Wunderground v.1.15,2013-03-23 23:13:00,
2013-03-23 18:14:00,54.1,49.7,29.49,South,171,0.0,2.0,85,0.00,,,0.02,Wunderground v.1.15,2013-03-23 23:14:00,
2013-03-23 18:17:00,54.1,49.7,29.49,ESE,103,0.0,2.0,85,0.00,,,0.02,Wunderground v.1.15,2013-03-23 23:17:00,
2013-03-23 18:18:00,54.0,49.6,29.49,SSE,149,0.0,4.0,85,0.00,,,0.02,Wunderground v.1.15,2013-03-23 23:18:00,
2013-03-23 18:19:00,54.0,49.6,29.49,SSE,149,0.0,4.0,85,0.00,,,0.02,Wunderground v.1.15,2013-03-23 23:19:00,
2013-03-23 18:22:00,54.0,49.6,29.49,ESE,107,0.0,4.0,85,0.00,,,0.02,Wunderground v.1.15,2013-03-23 23:22:00,
2013-03-23 18:23:00,54.0,49.6,29.49,ESE,107,0.0,1.0,85,0.00,,,0.02,Wunderground v.1.15,2013-03-23 23:23:00,
2013-03-23 18:24:00,54.0,49.9,29.49,East,84,6.0,6.0,86,0.00,,,0.02,Wunderground v.1.15,2013-03-23 23:24:00,
2013-03-23 18:27:00,53.9,49.5,29.48,East,84,1.0,6.0,85,0.00,,,0.02,Wunderground v.1.15,2013-03-23 23:27:00,
2013-03-23 18:28:00,53.9,49.5,29.48,NW,313,0.0,6.0,85,0.00,,,0.02,Wunderground v.1.15,2013-03-23 23:28:00,
2013-03-23 18:29:00,53.9,49.5,29.48,South,179,0.0,6.0,85,0.00,,,0.02,Wunderground v.1.15,2013-03-23 23:29:00,
2013-03-23 18:30:00,53.9,49.8,29.48,South,179,0.0,6.0,86,0.00,,,0.02,Wunderground v.1.15,2013-03-23 23:30:00,
2013-03-23 18:32:00,53.9,49.8,29.49,WSW,237,0.0,1.0,86,0.00,,,0.02,Wunderground v.1.15,2013-03-23 23:32:00,
2013-03-23 18:33:00,53.9,49.8,29.48,East,81,0.0,1.0,86,0.00,,,0.02,Wunderground v.1.15,2013-03-23 23:33:00,
2013-03-23 18:35:00,53.8,49.7,29.49,ESE,111,0.0,5.0,86,0.00,,,0.02,Wunderground v.1.15,2013-03-23 23:35:00,
2013-03-23 18:36:00,53.8,49.7,29.49,SE,145,0.0,5.0,86,0.00,,,0.02,Wunderground v.1.15,2013-03-23 23:36:00,
2013-03-23 18:37:00,53.8,49.7,29.49,ESE,113,0.0,5.0,86,0.00,,,0.02,Wunderground v.1.15,2013-03-23 23:37:00,
2013-03-23 18:38:00,53.8,49.7,29.48,ESE,105,0.0,5.0,86,0.00,,,0.02,Wunderground v.1.15,2013-03-23 23:38:00,
2013-03-23 18:40:00,53.8,49.7,29.48,East,86,0.0,5.0,86,0.00,,,0.02,Wunderground v.1.15,2013-03-23 23:40:00,
2013-03-23 18:41:00,53.8,49.7,29.48,East,86,0.0,5.0,86,0.00,,,0.02,Wunderground v.1.15,2013-03-23 23:41:00,
2013-03-23 18:43:00,53.8,49.7,29.49,SSE,150,0.0,0.0,86,0.00,,,0.02,Wunderground v.1.15,2013-03-23 23:43:00,
2013-03-23 18:46:00,53.7,49.6,29.48,East,100,1.0,3.0,86,0.00,,,0.02,Wunderground v.1.15,2013-03-23 23:46:00,
2013-03-23 18:47:00,53.7,49.6,29.48,NNW,333,0.0,3.0,86,0.00,,,0.02,Wunderground v.1.15,2013-03-23 23:47:00,
2013-03-23 18:48:00,53.7,49.6,29.48,North,360,0.0,3.0,86,0.00,,,0.02,Wunderground v.1.15,2013-03-23 23:48:00,
2013-03-23 18:52:00,53.7,49.6,29.48,West,271,3.0,7.0,86,0.00,,,0.02,Wunderground v.1.15,2013-03-23 23:52:00,
2013-03-23 18:53:00,53.7,49.6,29.48,ESE,111,1.0,3.0,86,0.00,,,0.02,Wunderground v.1.15,2013-03-23 23:53:00,
2013-03-23 18:54:00,53.7,49.6,29.48,ESE,111,0.0,3.0,86,0.00,,,0.02,Wunderground v.1.15,2013-03-23 23:54:00,
2013-03-23 18:57:00,53.7,49.6,29.49,ESE,119,0.0,3.0,86,0.00,,,0.02,Wunderground v.1.15,2013-03-23 23:57:00,
2013-03-23 18:58:00,53.7,49.6,29.50,NNW,333,0.0,3.0,86,0.00,,,0.02,Wunderground v.1.15,2013-03-23 23:58:00,
2013-03-23 18:59:00,53.6,49.5,29.50,North,10,0.0,3.0,86,0.00,,,0.02,Wunderground v.1.15,2013-03-23 23:59:00,
2013-03-23 19:02:00,53.6,49.5,29.49,NNE,13,0.0,3.0,86,0.00,,,0.02,Wunderground v.1.15,2013-03-24 00:02:00,
2013-03-23 19:04:00,53.6,49.5,29.49,ESE,115,0.0,0.0,86,0.00,,,0.02,Wunderground v.1.15,2013-03-24 00:04:00,
2013-03-23 19:07:00,53.6,49.5,29.49,ESE,113,0.0,0.0,86,0.00,,,0.02,Wunderground v.1.15,2013-03-24 00:07:00,
2013-03-23 19:08:00,53.6,49.5,29.49,ESE,115,2.0,2.0,86,0.00,,,0.02,Wunderground v.1.15,2013-03-24 00:08:00,
2013-03-23 19:09:00,53.6,49.8,29.49,SSE,168,0.0,2.0,87,0.00,,,0.02,Wunderground v.1.15,2013-03-24 00:09:00,
2013-03-23 19:10:00,53.6,49.8,29.49,SE,137,0.0,2.0,87,0.00,,,0.02,Wunderground v.1.15,2013-03-24 00:10:00,
2013-03-23 19:12:00,53.6,49.8,29.49,SSE,147,1.0,1.0,87,0.00,,,0.02,Wunderground v.1.15,2013-03-24 00:12:00,
2013-03-23 19:13:00,53.6,49.8,29.49,SSE,153,0.0,1.0,87,0.00,,,0.02,Wunderground v.1.15,2013-03-24 00:13:00,
2013-03-23 19:14:00,53.6,49.8,29.49,SE,142,1.0,2.0,87,0.00,,,0.02,Wunderground v.1.15,2013-03-24 00:14:00,
2013-03-23 19:15:00,53.6,49.8,29.49,South,173,0.0,2.0,87,0.00,,,0.02,Wunderground v.1.15,2013-03-24 00:15:00,
2013-03-23 19:17:00,53.5,49.7,29.49,SE,132,0.0,3.0,87,0.00,,,0.02,Wunderground v.1.15,2013-03-24 00:17:00,
2013-03-23 19:18:00,53.5,49.7,29.49,SE,132,0.0,3.0,87,0.00,,,0.02,Wunderground v.1.15,2013-03-24 00:18:00,
2013-03-23 19:19:00,53.5,49.7,29.49,SSE,148,0.0,3.0,87,0.00,,,0.02,Wunderground v.1.15,2013-03-24 00:19:00,
2013-03-23 19:20:00,53.5,49.7,29.49,SSE,148,0.0,3.0,87,0.00,,,0.02,Wunderground v.1.15,2013-03-24 00:20:00,
2013-03-23 19:22:00,53.4,49.6,29.49,ESE,121,0.0,0.0,87,0.00,,,0.02,Wunderground v.1.15,2013-03-24 00:22:00,
2013-03-23 19:24:00,53.4,49.6,29.50,ESE,121,0.0,0.0,87,0.00,,,0.02,Wunderground v.1.15,2013-03-24 00:24:00,
2013-03-23 19:25:00,53.4,49.6,29.50,ESE,121,0.0,0.0,87,0.00,,,0.02,Wunderground v.1.15,2013-03-24 00:25:00,
2013-03-23 19:27:00,53.3,49.8,29.50,SSW,193,0.0,3.0,88,0.00,,,0.02,Wunderground v.1.15,2013-03-24 00:27:00,
2013-03-23 19:29:00,53.3,49.8,29.50,SSE,149,0.0,3.0,88,0.00,,,0.02,Wunderground v.1.15,2013-03-24 00:29:00,
2013-03-23 19:30:00,53.3,49.8,29.50,SSE,150,0.0,3.0,88,0.00,,,0.02,Wunderground v.1.15,2013-03-24 00:30:00,
2013-03-23 19:33:00,53.2,49.7,29.50,SSE,150,0.0,0.0,88,0.00,,,0.02,Wunderground v.1.15,2013-03-24 00:33:00,
2013-03-23 19:34:00,53.2,49.7,29.50,SSE,150,0.0,0.0,88,0.00,,,0.02,Wunderground v.1.15,2013-03-24 00:34:00,
2013-03-23 19:35:00,53.2,49.7,29.50,SSE,150,0.0,0.0,88,0.00,,,0.02,Wunderground v.1.15,2013-03-24 00:35:00,
2013-03-23 19:36:00,53.2,49.7,29.50,SSE,150,0.0,0.0,88,0.00,,,0.02,Wunderground v.1.15,2013-03-24 00:36:00,
2013-03-23 19:38:00,53.2,49.7,29.50,SSE,150,0.0,0.0,88,0.00,,,0.02,Wunderground v.1.15,2013-03-24 00:38:00,
2013-03-23 19:39:00,53.2,49.7,29.51,SSE,150,0.0,0.0,88,0.00,,,0.02,Wunderground v.1.15,2013-03-24 00:39:00,
2013-03-23 19:40:00,53.2,50.0,29.52,SSE,150,0.0,0.0,89,0.00,,,0.02,Wunderground v.1.15,2013-03-24 00:40:00,
2013-03-23 19:41:00,53.1,49.9,29.52,SSE,150,0.0,0.0,89,0.00,,,0.03,Wunderground v.1.15,2013-03-24 00:41:00,
2013-03-23 19:44:00,53.0,50.1,29.53,SSE,150,0.0,0.0,90,0.00,,,0.03,Wunderground v.1.15,2013-03-24 00:44:00,
2013-03-23 19:45:00,53.0,50.1,29.53,SSE,150,0.0,0.0,90,0.00,,,0.03,Wunderground v.1.15,2013-03-24 00:45:00,
2013-03-23 19:47:00,52.9,50.0,29.53,SSE,150,0.0,0.0,90,0.12,,,0.04,Wunderground v.1.15,2013-03-24 00:47:00,
2013-03-23 19:50:00,52.8,49.9,29.53,SSE,150,0.0,1.0,90,0.12,,,0.04,Wunderground v.1.15,2013-03-24 00:50:00,
2013-03-23 19:51:00,52.7,49.8,29.53,SSE,150,0.0,1.0,90,0.12,,,0.05,Wunderground v.1.15,2013-03-24 00:51:00,
2013-03-23 19:52:00,52.7,49.8,29.53,SSE,150,0.0,1.0,90,0.12,,,0.05,Wunderground v.1.15,2013-03-24 00:52:00,
2013-03-23 19:55:00,52.6,50.0,29.52,SSE,150,0.0,0.0,91,0.12,,,0.05,Wunderground v.1.15,2013-03-24 00:55:00,
2013-03-23 19:58:00,52.5,49.9,29.51,SSE,150,0.0,0.0,91,0.10,,,0.06,Wunderground v.1.15,2013-03-24 00:58:00,
2013-03-23 20:00:00,52.4,49.8,29.51,SSE,150,0.0,0.0,91,0.10,,,0.06,Wunderground v.1.15,2013-03-24 01:00:00,
2013-03-23 20:01:00,52.4,49.8,29.51,SSE,150,0.0,0.0,91,0.10,,,0.06,Wunderground v.1.15,2013-03-24 01:01:00,
2013-03-23 20:03:00,52.3,50.0,29.50,SSE,150,0.0,0.0,92,0.10,,,0.07,Wunderground v.1.15,2013-03-24 01:03:00,
2013-03-23 20:05:00,52.2,49.9,29.50,SSE,150,0.0,0.0,92,0.10,,,0.07,Wunderground v.1.15,2013-03-24 01:05:00,
2013-03-23 20:06:00,52.2,49.9,29.49,SSE,150,0.0,0.0,92,0.10,,,0.07,Wunderground v.1.15,2013-03-24 01:06:00,
2013-03-23 20:08:00,52.1,49.8,29.50,SSE,150,0.0,0.0,92,0.10,,,0.07,Wunderground v.1.15,2013-03-24 01:08:00,
2013-03-23 20:10:00,52.0,49.7,29.50,SSE,150,0.0,0.0,92,0.07,,,0.07,Wunderground v.1.15,2013-03-24 01:10:00,
2013-03-23 20:13:00,52.0,49.7,29.49,SSE,150,0.0,0.0,92,0.06,,,0.07,Wunderground v.1.15,2013-03-24 01:13:00,
2013-03-23 20:16:00,51.9,49.6,29.48,SSE,150,0.0,0.0,92,0.05,,,0.08,Wunderground v.1.15,2013-03-24 01:16:00,
2013-03-23 20:18:00,51.8,49.8,29.48,SSE,150,0.0,0.0,93,0.05,,,0.08,Wunderground v.1.15,2013-03-24 01:18:00,
2013-03-23 20:19:00,51.8,49.8,29.48,SSE,153,0.0,0.0,93,0.05,,,0.08,Wunderground v.1.15,2013-03-24 01:19:00,
2013-03-23 20:21:00,51.8,49.8,29.49,South,180,2.0,2.0,93,0.10,,,0.09,Wunderground v.1.15,2013-03-24 01:21:00,
2013-03-23 20:24:00,51.7,49.7,29.50,South,180,0.0,2.0,93,0.10,,,0.09,Wunderground v.1.15,2013-03-24 01:24:00,
2013-03-23 20:27:00,51.7,49.7,29.50,South,180,0.0,2.0,93,0.08,,,0.09,Wunderground v.1.15,2013-03-24 01:27:00,
2013-03-23 20:29:00,51.6,49.6,29.50,East,95,0.0,2.0,93,0.06,,,0.09,Wunderground v.1.15,2013-03-24 01:29:00,
2013-03-23 20:30:00,51.6,49.6,29.50,East,95,0.0,2.0,93,0.06,,,0.09,Wunderground v.1.15,2013-03-24 01:30:00,
2013-03-23 20:32:00,51.6,49.6,29.50,East,95,0.0,2.0,93,0.05,,,0.09,Wunderground v.1.15,2013-03-24 01:32:00,
2013-03-23 20:34:00,51.5,49.5,29.50,East,95,0.0,0.0,93,0.05,,,0.10,Wunderground v.1.15,2013-03-24 01:34:00,
2013-03-23 20:35:00,51.5,49.5,29.51,East,95,0.0,0.0,93,0.05,,,0.10,Wunderground v.1.15,2013-03-24 01:35:00,
2013-03-23 20:38:00,51.5,49.5,29.52,East,95,0.0,0.0,93,0.05,,,0.10,Wunderground v.1.15,2013-03-24 01:38:00,
2013-03-23 20:39:00,51.5,49.5,29.52,East,95,0.0,0.0,93,0.05,,,0.10,Wunderground v.1.15,2013-03-24 01:39:00,
2013-03-23 20:40:00,51.5,49.5,29.53,East,95,0.0,0.0,93,0.05,,,0.10,Wunderground v.1.15,2013-03-24 01:40:00,
2013-03-23 20:43:00,51.5,49.8,29.53,East,95,0.0,0.0,94,0.05,,,0.10,Wunderground v.1.15,2013-03-24 01:43:00,
2013-03-23 20:44:00,51.4,49.7,29.53,East,95,0.0,0.0,94,0.05,,,0.10,Wunderground v.1.15,2013-03-24 01:44:00,
2013-03-23 20:45:00,51.4,49.7,29.53,East,95,0.0,0.0,94,0.05,,,0.11,Wunderground v.1.15,2013-03-24 01:45:00,
2013-03-23 20:47:00,51.4,49.7,29.53,East,95,0.0,0.0,94,0.05,,,0.11,Wunderground v.1.15,2013-03-24 01:47:00,
2013-03-23 20:48:00,51.4,49.4,29.53,East,95,0.0,0.0,93,0.05,,,0.11,Wunderground v.1.15,2013-03-24 01:48:00,
2013-03-23 20:49:00,51.4,49.7,29.53,East,95,0.0,0.0,94,0.05,,,0.11,Wunderground v.1.15,2013-03-24 01:49:00,
2013-03-23 20:50:00,51.4,49.7,29.53,East,95,0.0,0.0,94,0.12,,,0.12,Wunderground v.1.15,2013-03-24 01:50:00,
2013-03-23 20:52:00,51.4,49.7,29.53,East,95,0.0,0.0,94,0.12,,,0.12,Wunderground v.1.15,2013-03-24 01:52:00,
2013-03-23 20:53:00,51.4,49.7,29.53,East,95,0.0,0.0,94,0.12,,,0.12,Wunderground v.1.15,2013-03-24 01:53:00,
2013-03-23 20:55:00,51.3,49.6,29.52,East,95,0.0,0.0,94,0.14,,,0.13,Wunderground v.1.15,2013-03-24 01:55:00,
2013-03-23 20:56:00,51.4,49.7,29.51,East,95,0.0,0.0,94,0.14,,,0.13,Wunderground v.1.15,2013-03-24 01:56:00,
2013-03-23 20:58:00,51.4,49.7,29.50,East,95,0.0,0.0,94,0.18,,,0.14,Wunderground v.1.15,2013-03-24 01:58:00,
2013-03-23 20:59:00,51.3,49.6,29.49,East,95,0.0,0.0,94,0.18,,,0.14,Wunderground v.1.15,2013-03-24 01:59:00,
2013-03-23 21:00:00,51.3,49.6,29.49,ENE,76,0.0,0.0,94,0.18,,,0.14,Wunderground v.1.15,2013-03-24 02:00:00,
2013-03-23 21:01:00,51.3,49.6,29.48,ENE,77,0.0,0.0,94,0.18,,,0.14,Wunderground v.1.15,2013-03-24 02:01:00,
2013-03-23 21:04:00,51.3,49.6,29.47,NNE,22,0.0,0.0,94,0.11,,,0.15,Wunderground v.1.15,2013-03-24 02:04:00,
2013-03-23 21:05:00,51.3,49.6,29.46,NNE,22,0.0,0.0,94,0.11,,,0.15,Wunderground v.1.15,2013-03-24 02:05:00,
2013-03-23 21:06:00,51.3,49.6,29.46,North,360,0.0,2.0,94,0.11,,,0.15,Wunderground v.1.15,2013-03-24 02:06:00,
2013-03-23 21:07:00,51.3,49.6,29.46,North,360,0.0,2.0,94,0.11,,,0.15,Wunderground v.1.15,2013-03-24 02:07:00,
2013-03-23 21:09:00,51.2,49.5,29.46,SSE,167,2.0,3.0,94,0.09,,,0.15,Wunderground v.1.15,2013-03-24 02:09:00,
2013-03-23 21:10:00,51.2,49.5,29.46,SSE,167,0.0,3.0,94,0.09,,,0.15,Wunderground v.1.15,2013-03-24 02:10:00,
2013-03-23 21:11:00,51.2,49.5,29.47,SSE,151,0.0,3.0,94,0.09,,,0.16,Wunderground v.1.15,2013-03-24 02:11:00,
2013-03-23 21:12:00,51.2,49.5,29.47,SSE,150,0.0,0.0,94,0.09,,,0.16,Wunderground v.1.15,2013-03-24 02:12:00,
2013-03-23 21:15:00,51.2,49.5,29.48,South,182,0.0,2.0,94,0.09,,,0.16,Wunderground v.1.15,2013-03-24 02:15:00,
2013-03-23 21:16:00,51.2,49.5,29.48,South,182,0.0,2.0,94,0.09,,,0.16,Wunderground v.1.15,2013-03-24 02:16:00,
2013-03-23 21:18:00,51.2,49.5,29.48,East,94,2.0,4.0,94,0.07,,,0.16,Wunderground v.1.15,2013-03-24 02:18:00,
2013-03-23 21:20:00,51.2,49.5,29.48,East,95,0.0,4.0,94,0.06,,,0.16,Wunderground v.1.15,2013-03-24 02:20:00,
2013-03-23 21:22:00,51.2,49.5,29.48,East,95,0.0,4.0,94,0.05,,,0.16,Wunderground v.1.15,2013-03-24 02:22:00,
2013-03-23 21:23:00,51.2,49.5,29.48,East,95,0.0,0.0,94,0.04,,,0.16,Wunderground v.1.15,2013-03-24 02:23:00,
2013-03-23 21:25:00,51.2,49.5,29.47,East,95,0.0,0.0,94,0.04,,,0.16,Wunderground v.1.15,2013-03-24 02:25:00,
2013-03-23 21:27:00,51.2,49.5,29.47,East,95,0.0,0.0,94,0.00,,,0.16,Wunderground v.1.15,2013-03-24 02:27:00,
2013-03-23 21:28:00,51.2,49.5,29.47,East,84,0.0,0.0,94,0.00,,,0.17,Wunderground v.1.15,2013-03-24 02:28:00,
2013-03-23 21:31:00,51.2,49.5,29.46,East,88,1.0,1.0,94,0.00,,,0.17,Wunderground v.1.15,2013-03-24 02:31:00,
2013-03-23 21:32:00,51.2,49.5,29.46,ESE,103,0.0,2.0,94,0.00,,,0.17,Wunderground v.1.15,2013-03-24 02:32:00,
2013-03-23 21:34:00,51.2,49.5,29.46,ENE,69,0.0,1.0,94,0.10,,,0.18,Wunderground v.1.15,2013-03-24 02:34:00,
2013-03-23 21:36:00,51.2,49.5,29.46,South,184,0.0,2.0,94,0.10,,,0.18,Wunderground v.1.15,2013-03-24 02:36:00,
2013-03-23 21:37:00,51.2,49.5,29.46,ESE,103,3.0,5.0,94,0.10,,,0.18,Wunderground v.1.15,2013-03-24 02:37:00,
2013-03-23 21:39:00,51.2,49.5,29.47,East,101,0.0,5.0,94,0.10,,,0.18,Wunderground v.1.15,2013-03-24 02:39:00,
2013-03-23 21:41:00,51.2,49.5,29.47,East,93,0.0,5.0,94,0.08,,,0.18,Wunderground v.1.15,2013-03-24 02:41:00,
2013-03-23 21:42:00,51.2,49.5,29.47,East,93,0.0,0.0,94,0.08,,,0.19,Wunderground v.1.15,2013-03-24 02:42:00,
2013-03-23 21:43:00,51.2,49.5,29.47,SE,128,0.0,2.0,94,0.08,,,0.19,Wunderground v.1.15,2013-03-24 02:43:00,
2013-03-23 21:44:00,51.2,49.5,29.47,SE,128,0.0,2.0,94,0.08,,,0.19,Wunderground v.1.15,2013-03-24 02:44:00,
2013-03-23 21:46:00,51.2,49.5,29.47,SE,128,0.0,2.0,94,0.08,,,0.19,Wunderground v.1.15,2013-03-24 02:46:00,
2013-03-23 21:47:00,51.2,49.5,29.47,SE,128,0.0,3.0,94,0.12,,,0.20,Wunderground v.1.15,2013-03-24 02:47:00,
2013-03-23 21:48:00,51.2,49.5,29.47,SE,128,0.0,3.0,94,0.12,,,0.20,Wunderground v.1.15,2013-03-24 02:48:00,
2013-03-23 21:50:00,51.2,49.5,29.48,SSE,148,0.0,3.0,94,0.12,,,0.20,Wunderground v.1.15,2013-03-24 02:50:00,
2013-03-23 21:51:00,51.2,49.5,29.48,SSE,163,0.0,3.0,94,0.11,,,0.20,Wunderground v.1.15,2013-03-24 02:51:00,
2013-03-23 21:53:00,51.2,49.5,29.49,SSE,163,0.0,0.0,94,0.08,,,0.20,Wunderground v.1.15,2013-03-24 02:53:00,
2013-03-23 21:55:00,51.2,49.5,29.48,East,82,0.0,0.0,94,0.07,,,0.20,Wunderground v.1.15,2013-03-24 02:55:00,
2013-03-23 21:57:00,51.2,49.5,29.49,East,83,0.0,0.0,94,0.06,,,0.20,Wunderground v.1.15,2013-03-24 02:57:00,
2013-03-23 21:58:00,51.2,49.5,29.49,East,83,0.0,0.0,94,0.05,,,0.21,Wunderground v.1.15,2013-03-24 02:58:00,
2013-03-23 22:01:00,51.2,49.5,29.48,ENE,66,0.0,1.0,94,0.05,,,0.21,Wunderground v.1.15,2013-03-24 03:01:00,
2013-03-23 22:03:00,51.2,49.5,29.48,ENE,65,0.0,0.0,94,0.15,,,0.22,Wunderground v.1.15,2013-03-24 03:03:00,
2013-03-23 22:04:00,51.2,49.5,29.48,ENE,65,0.0,0.0,94,0.15,,,0.22,Wunderground v.1.15,2013-03-24 03:04:00,
2013-03-23 22:06:00,51.2,49.5,29.48,ENE,66,0.0,0.0,94,0.16,,,0.23,Wunderground v.1.15,2013-03-24 03:06:00,
2013-03-23 22:08:00,51.2,49.5,29.48,ENE,57,0.0,2.0,94,0.16,,,0.23,Wunderground v.1.15,2013-03-24 03:08:00,
2013-03-23 22:09:00,51.2,49.5,29.48,East,96,0.0,2.0,94,0.16,,,0.23,Wunderground v.1.15,2013-03-24 03:09:00,
2013-03-23 22:10:00,51.2,49.5,29.48,East,96,0.0,2.0,94,0.16,,,0.24,Wunderground v.1.15,2013-03-24 03:10:00,
2013-03-23 22:11:00,51.2,49.5,29.49,East,96,0.0,2.0,94,0.16,,,0.24,Wunderground v.1.15,2013-03-24 03:11:00,
2013-03-23 22:13:00,51.2,49.5,29.50,East,95,0.0,0.0,94,0.17,,,0.24,Wunderground v.1.15,2013-03-24 03:13:00,
2013-03-23 22:14:00,51.2,49.5,29.50,SSE,165,0.0,0.0,94,0.17,,,0.25,Wunderground v.1.15,2013-03-24 03:14:00,
2013-03-23 22:15:00,51.2,49.5,29.50,SSE,165,0.0,0.0,94,0.17,,,0.25,Wunderground v.1.15,2013-03-24 03:15:00,
2013-03-23 22:17:00,51.2,49.5,29.50,SSE,165,0.0,0.0,94,0.13,,,0.25,Wunderground v.1.15,2013-03-24 03:17:00,
2013-03-23 22:18:00,51.2,49.5,29.50,SSE,165,0.0,0.0,94,0.13,,,0.26,Wunderground v.1.15,2013-03-24 03:18:00,
2013-03-23 22:19:00,51.1,49.4,29.50,SSE,165,0.0,0.0,94,0.13,,,0.26,Wunderground v.1.15,2013-03-24 03:19:00,
2013-03-23 22:22:00,51.1,49.4,29.49,SSE,166,0.0,0.0,94,0.18,,,0.27,Wunderground v.1.15,2013-03-24 03:22:00,
2013-03-23 22:23:00,51.1,49.4,29.49,SSE,165,0.0,0.0,94,0.18,,,0.27,Wunderground v.1.15,2013-03-24 03:23:00,
2013-03-23 22:26:00,51.1,49.4,29.49,SSE,166,0.0,0.0,94,0.20,,,0.28,Wunderground v.1.15,2013-03-24 03:26:00,
2013-03-23 22:27:00,51.1,49.4,29.48,SSE,165,0.0,0.0,94,0.17,,,0.28,Wunderground v.1.15,2013-03-24 03:27:00,
2013-03-23 22:28:00,51.1,49.4,29.48,SSE,165,0.0,0.0,94,0.17,,,0.29,Wunderground v.1.15,2013-03-24 03:28:00,
2013-03-23 22:31:00,51.1,49.4,29.46,SSE,166,0.0,0.0,94,0.23,,,0.30,Wunderground v.1.15,2013-03-24 03:31:00,
2013-03-23 22:32:00,51.1,49.4,29.46,SSE,166,0.0,0.0,94,0.23,,,0.30,Wunderground v.1.15,2013-03-24 03:32:00,
2013-03-23 22:33:00,51.1,49.4,29.46,SSE,167,0.0,0.0,94,0.18,,,0.30,Wunderground v.1.15,2013-03-24 03:33:00,
2013-03-23 22:34:00,51.1,49.4,29.46,SSE,167,0.0,0.0,94,0.18,,,0.31,Wunderground v.1.15,2013-03-24 03:34:00,
2013-03-23 22:37:00,51.1,49.4,29.46,SSE,167,0.0,0.0,94,0.16,,,0.32,Wunderground v.1.15,2013-03-24 03:37:00,
2013-03-23 22:38:00,51.0,49.3,29.46,SSE,167,0.0,0.0,94,0.16,,,0.32,Wunderground v.1.15,2013-03-24 03:38:00,
2013-03-23 22:39:00,51.0,49.3,29.46,SSE,167,0.0,0.0,94,0.16,,,0.32,Wunderground v.1.15,2013-03-24 03:39:00,
2013-03-23 22:42:00,51.0,49.3,29.45,ENE,78,0.0,0.0,94,0.22,,,0.33,Wunderground v.1.15,2013-03-24 03:42:00,
2013-03-23 22:43:00,51.0,49.3,29.45,ENE,78,0.0,0.0,94,0.22,,,0.34,Wunderground v.1.15,2013-03-24 03:43:00,
2013-03-23 22:44:00,51.0,49.3,29.45,ENE,78,0.0,0.0,94,0.22,,,0.34,Wunderground v.1.15,2013-03-24 03:44:00,
2013-03-23 22:47:00,51.0,49.3,29.45,East,86,0.0,1.0,94,0.24,,,0.35,Wunderground v.1.15,2013-03-24 03:47:00,
2013-03-23 22:49:00,51.0,49.3,29.46,East,86,0.0,1.0,94,0.24,,,0.36,Wunderground v.1.15,2013-03-24 03:49:00,
2013-03-23 22:53:00,51.0,49.3,29.46,East,86,0.0,0.0,94,0.20,,,0.37,Wunderground v.1.15,2013-03-24 03:53:00,
2013-03-23 22:54:00,51.0,49.3,29.47,East,86,0.0,0.0,94,0.20,,,0.38,Wunderground v.1.15,2013-03-24 03:54:00,
2013-03-23 22:58:00,51.0,49.3,29.47,ENE,76,0.0,3.0,94,0.21,,,0.39,Wunderground v.1.15,2013-03-24 03:58:00,
2013-03-23 22:59:00,51.0,49.3,29.47,East,92,0.0,3.0,94,0.25,,,0.40,Wunderground v.1.15,2013-03-24 03:59:00,
2013-03-23 23:00:00,51.0,49.3,29.48,East,92,0.0,3.0,94,0.25,,,0.40,Wunderground v.1.15,2013-03-24 04:00:00,
2013-03-23 23:02:00,51.0,49.3,29.48,East,92,0.0,3.0,94,0.25,,,0.41,Wunderground v.1.15,2013-03-24 04:02:00,
2013-03-23 23:05:00,51.1,49.4,29.48,East,92,0.0,0.0,94,0.23,,,0.42,Wunderground v.1.15,2013-03-24 04:05:00,
2013-03-23 23:06:00,51.1,49.4,29.48,East,92,0.0,0.0,94,0.23,,,0.42,Wunderground v.1.15,2013-03-24 04:06:00,
2013-03-23 23:07:00,51.1,49.4,29.48,East,92,0.0,0.0,94,0.22,,,0.43,Wunderground v.1.15,2013-03-24 04:07:00,
2013-03-23 23:10:00,51.1,49.4,29.48,East,92,0.0,0.0,94,0.24,,,0.44,Wunderground v.1.15,2013-03-24 04:10:00,
2013-03-23 23:11:00,51.1,49.4,29.48,East,92,0.0,0.0,94,0.24,,,0.44,Wunderground v.1.15,2013-03-24 04:11:00,
2013-03-23 23:12:00,51.1,49.4,29.48,East,92,0.0,0.0,94,0.23,,,0.45,Wunderground v.1.15,2013-03-24 04:12:00,
2013-03-23 23:15:00,51.0,49.3,29.47,East,91,0.0,0.0,94,0.22,,,0.46,Wunderground v.1.15,2013-03-24 04:15:00,
2013-03-23 23:16:00,51.0,49.3,29.48,East,92,0.0,0.0,94,0.22,,,0.46,Wunderground v.1.15,2013-03-24 04:16:00,
2013-03-23 23:17:00,51.1,49.4,29.47,East,91,0.0,0.0,94,0.21,,,0.46,Wunderground v.1.15,2013-03-24 04:17:00,
2013-03-23 23:20:00,51.0,49.3,29.47,WNW,290,0.0,3.0,94,0.10,,,0.46,Wunderground v.1.15,2013-03-24 04:20:00,
2013-03-23 23:21:00,51.0,49.3,29.46,WNW,290,0.0,3.0,94,0.09,,,0.47,Wunderground v.1.15,2013-03-24 04:21:00,
2013-03-23 23:22:00,51.0,49.3,29.45,WNW,290,0.0,3.0,94,0.09,,,0.47,Wunderground v.1.15,2013-03-24 04:22:00,
2013-03-23 23:25:00,51.0,49.3,29.46,WNW,290,0.0,1.0,94,0.09,,,0.47,Wunderground v.1.15,2013-03-24 04:25:00,
2013-03-23 23:26:00,51.0,49.3,29.46,WNW,290,0.0,1.0,94,0.09,,,0.47,Wunderground v.1.15,2013-03-24 04:26:00,
2013-03-23 23:27:00,51.0,49.3,29.46,WNW,290,0.0,1.0,94,0.09,,,0.47,Wunderground v.1.15,2013-03-24 04:27:00,
2013-03-23 23:30:00,51.0,49.3,29.47,WNW,290,0.0,1.0,94,0.10,,,0.48,Wunderground v.1.15,2013-03-24 04:30:00,
2013-03-23 23:32:00,51.0,49.3,29.48,WNW,290,0.0,1.0,94,0.10,,,0.48,Wunderground v.1.15,2013-03-24 04:32:00,
2013-03-23 23:33:00,51.0,49.3,29.48,WNW,290,0.0,0.0,94,0.10,,,0.48,Wunderground v.1.15,2013-03-24 04:33:00,
2013-03-23 23:36:00,51.0,49.3,29.47,WNW,290,0.0,0.0,94,0.07,,,0.48,Wunderground v.1.15,2013-03-24 04:36:00,
2013-03-23 23:38:00,51.0,49.3,29.47,WNW,290,0.0,0.0,94,0.06,,,0.48,Wunderground v.1.15,2013-03-24 04:38:00,
2013-03-23 23:41:00,51.0,49.3,29.47,WNW,290,0.0,2.0,94,0.05,,,0.49,Wunderground v.1.15,2013-03-24 04:41:00,
2013-03-23 23:43:00,51.0,49.3,29.47,WNW,290,0.0,0.0,94,0.05,,,0.49,Wunderground v.1.15,2013-03-24 04:43:00,
2013-03-23 23:47:00,51.1,49.4,29.48,WNW,290,0.0,0.0,94,0.05,,,0.49,Wunderground v.1.15,2013-03-24 04:47:00,
2013-03-23 23:48:00,51.0,49.3,29.48,WNW,290,0.0,0.0,94,0.05,,,0.49,Wunderground v.1.15,2013-03-24 04:48:00,
2013-03-23 23:49:00,51.1,49.4,29.49,WNW,290,0.0,0.0,94,0.07,,,0.50,Wunderground v.1.15,2013-03-24 04:49:00,
2013-03-23 23:52:00,51.1,49.4,29.49,WNW,290,0.0,0.0,94,0.19,,,0.51,Wunderground v.1.15,2013-03-24 04:52:00,
2013-03-23 23:53:00,51.1,49.4,29.49,WNW,290,0.0,0.0,94,0.19,,,0.51,Wunderground v.1.15,2013-03-24 04:53:00,
2013-03-23 23:54:00,51.1,49.4,29.49,WNW,290,0.0,0.0,94,0.19,,,0.51,Wunderground v.1.15,2013-03-24 04:54:00,
2013-03-23 23:55:00,51.1,49.4,29.49,WNW,290,0.0,0.0,94,0.20,,,0.52,Wunderground v.1.15,2013-03-24 04:55:00,
2013-03-23 23:57:00,51.1,49.4,29.48,WNW,290,0.0,0.0,94,0.20,,,0.52,Wunderground v.1.15,2013-03-24 04:57:00,
2013-03-23 23:58:00,51.1,49.4,29.47,WNW,290,0.0,0.0,94,0.17,,,0.52,Wunderground v.1.15,2013-03-24 04:58:00,